GFSFLT2_prec_precacc_024.txt.gz
Total_Precipitation_Accumulation
0.00 0.00 0.02 0.03 0.03 0.05 0.05 0.03 0.03 0.07 0.13 0.13 0.11 0.13 0.17 0.20 0.23 0.27 0.32 0.34 0.32 0.31 0.33 0.38 0.43 0.48 0.62
0.01 0.00 0.00 0.01 0.02 0.03 0.04 0.07 0.06 0.05 0.08 0.09 0.09 0.11 0.13 0.14 0.16 0.19 0.26 0.33 0.41 0.48 0.51 0.49 0.44 0.48 0.59
0.03 0.00 0.01 0.01 0.03 0.04 0.03 0.04 0.04 0.07 0.11 0.13 0.13 0.13 0.12 0.13 0.19 0.24 0.29 0.36 0.43 0.47 0.53 0.64 0.71 0.69 0.55
0.12 0.08 0.04 0.04 0.05 0.04 0.04 0.04 0.04 0.03 0.06 0.12 0.14 0.15 0.15 0.18 0.21 0.26 0.28 0.33 0.45 0.52 0.57 0.61 0.62 0.63 0.61
0.17 0.17 0.11 0.05 0.04 0.04 0.07 0.05 0.04 0.03 0.06 0.11 0.11 0.10 0.09 0.16 0.25 0.28 0.31 0.36 0.49 0.67 0.78 0.84 0.88 0.87 0.89
0.27 0.11 0.03 0.02 0.03 0.10 0.19 0.21 0.15 0.03 0.05 0.04 0.05 0.06 0.08 0.15 0.24 0.25 0.31 0.39 0.45 0.51 0.56 0.54 0.54 0.59 0.63
0.06 0.06 0.08 0.10 0.28 0.36 0.23 0.16 0.09 0.03 0.07 0.09 0.08 0.10 0.13 0.16 0.24 0.29 0.36 0.44 0.50 0.54 0.50 0.49 0.52 0.50 0.48
0.04 0.10 0.21 0.23 0.19 0.12 0.09 0.11 0.08 0.05 0.10 0.23 0.10 0.10 0.08 0.16 0.30 0.24 0.30 0.42 0.53 0.59 0.57 0.50 0.46 0.54 0.55
0.12 0.11 0.05 0.02 0.03 0.19 0.31 0.30 0.20 0.05 0.06 0.20 0.15 0.12 0.11 0.17 0.33 0.39 0.42 0.44 0.43 0.39 0.36 0.35 0.40 0.40 0.47
0.01 0.00 0.01 0.02 0.07 0.15 0.38 0.69 0.36 0.26 0.07 0.33 0.23 0.18 0.36 0.18 0.34 0.44 0.42 0.44 0.40 0.38 0.33 0.31 0.31 0.30 0.28
0.00 0.00 0.01 0.01 0.04 0.07 0.20 0.60 0.71 0.44 0.11 0.54 0.56 0.23 0.40 0.29 0.38 0.47 0.44 0.51 0.57 0.66 0.66 0.46 0.33 0.25 0.24
0.03 0.02 0.02 0.03 0.03 0.04 0.08 0.18 0.33 0.51 0.24 0.36 0.64 0.33 0.46 0.46 0.45 0.48 0.49 0.63 0.88 1.05 1.12 0.66 0.51 0.40 0.38
0.09 0.05 0.03 0.04 0.04 0.06 0.12 0.16 0.21 0.26 0.31 0.40 0.57 0.56 0.57 0.48 0.38 0.39 0.54 0.69 0.85 0.87 0.87 0.82 0.46 0.25 0.30
0.18 0.07 0.04 0.05 0.08 0.16 0.32 0.28 0.35 0.29 0.34 0.43 0.51 0.50 0.40 0.35 0.37 0.41 0.52 0.68 0.73 0.71 0.62 0.74 0.72 0.42 0.20
0.16 0.13 0.08 0.08 0.11 0.21 0.43 0.52 0.57 0.48 0.44 0.41 0.32 0.29 0.33 0.35 0.38 0.42 0.43 0.55 0.76 0.79 0.57 0.65 0.77 0.71 0.45
0.16 0.16 0.22 0.22 0.25 0.28 0.49 0.62 0.58 0.51 0.50 0.44 0.32 0.24 0.27 0.30 0.39 0.47 0.47 0.56 0.76 0.67 0.55 0.40 0.73 0.93 0.62
0.29 0.31 0.29 0.25 0.31 0.41 0.52 0.53 0.51 0.46 0.35 0.23 0.23 0.26 0.28 0.24 0.26 0.46 0.46 0.54 0.53 0.41 0.40 0.32 0.50 0.72 0.52

GFSFLT2_prec_precacc_027.txt.gz
Total_Precipitation_Accumulation
0.00 0.00 0.02 0.03 0.03 0.05 0.05 0.04 0.04 0.08 0.14 0.13 0.11 0.13 0.17 0.21 0.24 0.28 0.32 0.35 0.33 0.31 0.34 0.40 0.46 0.51 0.66
0.01 0.00 0.00 0.01 0.02 0.03 0.05 0.08 0.06 0.05 0.08 0.09 0.09 0.12 0.14 0.14 0.16 0.20 0.26 0.34 0.42 0.50 0.54 0.52 0.47 0.51 0.62
0.03 0.00 0.01 0.01 0.04 0.04 0.04 0.04 0.04 0.07 0.11 0.13 0.13 0.13 0.12 0.13 0.19 0.25 0.31 0.40 0.46 0.49 0.55 0.65 0.72 0.69 0.56
0.13 0.08 0.05 0.05 0.07 0.04 0.04 0.04 0.04 0.03 0.06 0.12 0.14 0.15 0.15 0.18 0.21 0.26 0.28 0.33 0.45 0.52 0.57 0.62 0.63 0.63 0.62
0.19 0.22 0.15 0.05 0.04 0.04 0.07 0.05 0.05 0.04 0.06 0.11 0.11 0.10 0.09 0.16 0.25 0.28 0.31 0.36 0.49 0.68 0.79 0.86 0.91 0.90 0.92
0.34 0.13 0.03 0.02 0.03 0.11 0.22 0.24 0.16 0.03 0.05 0.04 0.05 0.06 0.08 0.15 0.24 0.25 0.31 0.40 0.45 0.52 0.58 0.57 0.58 0.62 0.67
0.06 0.06 0.08 0.11 0.32 0.39 0.23 0.17 0.09 0.03 0.08 0.10 0.08 0.10 0.13 0.16 0.24 0.29 0.36 0.44 0.51 0.54 0.52 0.52 0.54 0.52 0.50
0.04 0.11 0.22 0.24 0.20 0.12 0.10 0.13 0.09 0.05 0.10 0.24 0.10 0.10 0.08 0.16 0.30 0.24 0.30 0.42 0.54 0.60 0.59 0.52 0.49 0.57 0.57
0.13 0.11 0.05 0.02 0.03 0.23 0.34 0.32 0.21 0.05 0.06 0.21 0.15 0.12 0.11 0.17 0.33 0.39 0.42 0.44 0.43 0.39 0.37 0.37 0.42 0.44 0.53
0.01 0.00 0.01 0.02 0.07 0.16 0.43 0.75 0.38 0.27 0.07 0.35 0.24 0.19 0.40 0.19 0.34 0.44 0.42 0.44 0.40 0.38 0.35 0.34 0.34 0.32 0.31
0.00 0.00 0.01 0.01 0.04 0.08 0.22 0.66 0.78 0.48 0.11 0.60 0.62 0.24 0.43 0.30 0.38 0.47 0.44 0.51 0.58 0.70 0.75 0.55 0.43 0.34 0.32
0.03 0.02 0.02 0.03 0.03 0.04 0.09 0.19 0.37 0.60 0.28 0.41 0.73 0.37 0.51 0.48 0.45 0.48 0.49 0.63 0.92 1.14 1.23 0.75 0.65 0.53 0.46
0.09 0.05 0.03 0.04 0.05 0.06 0.12 0.16 0.21 0.27 0.33 0.41 0.62 0.60 0.61 0.53 0.40 0.40 0.56 0.69 0.85 0.96 0.99 1.00 0.75 0.42 0.32
0.18 0.07 0.04 0.05 0.08 0.16 0.33 0.28 0.37 0.29 0.34 0.44 0.54 0.55 0.44 0.36 0.41 0.44 0.53 0.77 0.78 0.80 0.77 0.90 0.87 0.52 0.22
0.16 0.14 0.08 0.08 0.11 0.21 0.44 0.54 0.58 0.50 0.45 0.41 0.32 0.30 0.35 0.38 0.41 0.44 0.48 0.62 0.87 0.89 0.65 0.78 0.87 0.76 0.47
0.16 0.16 0.23 0.23 0.26 0.28 0.49 0.63 0.61 0.52 0.52 0.45 0.33 0.24 0.28 0.30 0.42 0.55 0.55 0.66 0.89 0.78 0.64 0.49 0.78 0.96 0.64
0.30 0.33 0.32 0.26 0.31 0.42 0.52 0.53 0.52 0.47 0.36 0.25 0.25 0.27 0.30 0.25 0.27 0.54 0.60 0.66 0.62 0.49 0.47 0.40 0.59 0.82 0.54

GFSFLT2_prec_precacc_030.txt.gz
Total_Precipitation_Accumulation
0.00 0.00 0.02 0.03 0.03 0.05 0.05 0.04 0.05 0.11 0.15 0.14 0.11 0.13 0.17 0.21 0.26 0.30 0.35 0.37 0.36 0.35 0.38 0.44 0.49 0.54 0.69
0.01 0.00 0.00 0.01 0.02 0.03 0.05 0.09 0.08 0.05 0.08 0.09 0.09 0.12 0.14 0.15 0.17 0.21 0.28 0.36 0.43 0.52 0.56 0.54 0.49 0.54 0.64
0.03 0.00 0.01 0.01 0.04 0.04 0.04 0.04 0.04 0.07 0.11 0.13 0.13 0.13 0.12 0.14 0.20 0.26 0.33 0.43 0.49 0.52 0.59 0.69 0.76 0.73 0.60
0.14 0.09 0.06 0.06 0.07 0.04 0.04 0.04 0.04 0.03 0.06 0.12 0.15 0.16 0.15 0.18 0.21 0.26 0.28 0.33 0.46 0.52 0.58 0.62 0.64 0.64 0.62
0.23 0.26 0.16 0.05 0.04 0.04 0.07 0.05 0.05 0.04 0.06 0.11 0.11 0.10 0.09 0.16 0.25 0.28 0.31 0.36 0.49 0.68 0.79 0.87 0.93 0.92 0.93
0.36 0.13 0.03 0.02 0.03 0.12 0.24 0.25 0.16 0.03 0.05 0.05 0.05 0.06 0.08 0.15 0.24 0.25 0.31 0.40 0.46 0.53 0.60 0.59 0.60 0.65 0.70
0.06 0.06 0.08 0.12 0.36 0.42 0.24 0.17 0.10 0.03 0.08 0.12 0.08 0.10 0.13 0.16 0.24 0.29 0.36 0.44 0.51 0.55 0.53 0.53 0.56 0.54 0.51
0.05 0.11 0.23 0.26 0.20 0.13 0.11 0.14 0.09 0.05 0.10 0.27 0.10 0.10 0.08 0.16 0.30 0.24 0.30 0.42 0.54 0.60 0.59 0.53 0.50 0.58 0.59
0.14 0.11 0.05 0.02 0.04 0.27 0.36 0.34 0.22 0.05 0.06 0.22 0.15 0.13 0.11 0.17 0.33 0.39 0.42 0.45 0.43 0.39 0.37 0.37 0.43 0.45 0.54
0.02 0.00 0.01 0.02 0.07 0.17 0.46 0.80 0.40 0.29 0.07 0.38 0.25 0.20 0.44 0.19 0.34 0.44 0.42 0.44 0.40 0.39 0.36 0.35 0.36 0.35 0.35
0.00 0.00 0.01 0.01 0.04 0.08 0.22 0.72 0.87 0.53 0.11 0.66 0.66 0.25 0.46 0.31 0.38 0.47 0.44 0.51 0.58 0.70 0.78 0.62 0.51 0.43 0.43
0.03 0.02 0.02 0.03 0.03 0.04 0.09 0.20 0.40 0.67 0.31 0.45 0.81 0.40 0.56 0.49 0.45 0.48 0.49 0.63 0.92 1.15 1.25 0.78 0.69 0.61 0.59
0.09 0.05 0.03 0.04 0.05 0.06 0.12 0.16 0.21 0.28 0.34 0.42 0.65 0.62 0.66 0.58 0.43 0.40 0.60 0.71 0.85 0.98 1.03 1.09 0.88 0.59 0.44
0.19 0.07 0.04 0.05 0.08 0.16 0.34 0.28 0.37 0.29 0.34 0.44 0.55 0.60 0.49 0.39 0.49 0.49 0.56 0.83 0.84 0.86 0.82 0.99 0.98 0.60 0.23
0.16 0.14 0.09 0.09 0.11 0.21 0.44 0.55 0.59 0.50 0.45 0.41 0.32 0.30 0.37 0.41 0.43 0.46 0.53 0.67 0.95 0.96 0.71 0.87 0.95 0.80 0.47
0.16 0.16 0.24 0.24 0.27 0.28 0.49 0.64 0.62 0.52 0.53 0.45 0.33 0.24 0.28 0.30 0.44 0.62 0.61 0.75 0.96 0.83 0.67 0.57 0.82 0.99 0.64
0.30 0.33 0.33 0.26 0.32 0.42 0.52 0.54 0.52 0.47 0.37 0.25 0.25 0.28 0.30 0.26 0.27 0.57 0.68 0.74 0.68 0.54 0.50 0.47 0.64 0.84 0.54

GFSFLT2_prec_precacc_033.txt.gz
Total_Precipitation_Accumulation
0.00 0.00 0.02 0.03 0.03 0.05 0.05 0.04 0.05 0.11 0.15 0.14 0.12 0.13 0.17 0.21 0.26 0.31 0.36 0.40 0.40 0.40 0.43 0.49 0.55 0.60 0.74
0.01 0.00 0.00 0.01 0.02 0.03 0.05 0.09 0.08 0.05 0.08 0.09 0.09 0.12 0.14 0.15 0.18 0.23 0.30 0.38 0.47 0.55 0.59 0.57 0.52 0.56 0.67
0.03 0.00 0.01 0.01 0.04 0.04 0.04 0.04 0.04 0.07 0.11 0.13 0.13 0.13 0.13 0.14 0.20 0.26 0.34 0.43 0.50 0.53 0.60 0.71 0.79 0.77 0.63
0.15 0.12 0.08 0.06 0.07 0.04 0.04 0.04 0.04 0.03 0.06 0.12 0.15 0.16 0.15 0.18 0.21 0.26 0.28 0.33 0.46 0.52 0.58 0.63 0.65 0.65 0.62
0.27 0.26 0.16 0.05 0.04 0.04 0.07 0.06 0.05 0.04 0.06 0.11 0.11 0.10 0.09 0.16 0.25 0.28 0.31 0.36 0.50 0.69 0.80 0.88 0.94 0.94 0.94
0.36 0.13 0.03 0.02 0.03 0.12 0.25 0.26 0.17 0.03 0.05 0.05 0.05 0.06 0.08 0.15 0.24 0.25 0.31 0.40 0.46 0.54 0.61 0.61 0.61 0.66 0.71
0.06 0.06 0.08 0.13 0.39 0.43 0.25 0.18 0.11 0.03 0.09 0.12 0.08 0.10 0.13 0.16 0.24 0.29 0.36 0.45 0.52 0.55 0.54 0.54 0.57 0.55 0.52
0.05 0.11 0.24 0.27 0.20 0.13 0.12 0.16 0.09 0.05 0.10 0.27 0.10 0.10 0.08 0.16 0.30 0.24 0.30 0.42 0.54 0.61 0.60 0.54 0.51 0.60 0.61
0.15 0.12 0.05 0.02 0.04 0.28 0.37 0.36 0.23 0.05 0.06 0.22 0.15 0.13 0.11 0.17 0.33 0.39 0.42 0.45 0.43 0.40 0.37 0.38 0.44 0.46 0.55
0.02 0.00 0.01 0.02 0.07 0.17 0.47 0.85 0.42 0.30 0.07 0.41 0.26 0.21 0.47 0.19 0.34 0.44 0.42 0.44 0.40 0.39 0.36 0.37 0.38 0.38 0.39
0.00 0.00 0.01 0.01 0.04 0.08 0.22 0.77 0.93 0.57 0.11 0.72 0.70 0.25 0.48 0.31 0.38 0.47 0.44 0.51 0.59 0.70 0.79 0.63 0.55 0.50 0.53
0.03 0.02 0.02 0.03 0.03 0.04 0.09 0.20 0.42 0.74 0.33 0.48 0.87 0.43 0.60 0.51 0.46 0.48 0.49 0.64 0.93 1.15 1.25 0.78 0.69 0.64 0.66
0.10 0.05 0.03 0.04 0.05 0.06 0.12 0.16 0.21 0.28 0.34 0.42 0.69 0.65 0.70 0.63 0.48 0.41 0.63 0.72 0.85 0.99 1.06 1.11 0.93 0.65 0.53
0.19 0.07 0.04 0.05 0.08 0.16 0.34 0.28 0.38 0.29 0.34 0.44 0.57 0.65 0.54 0.41 0.55 0.52 0.57 0.88 0.89 0.91 0.87 1.04 1.04 0.67 0.30
0.17 0.15 0.09 0.09 0.11 0.21 0.44 0.55 0.60 0.50 0.45 0.41 0.32 0.31 0.38 0.42 0.43 0.46 0.54 0.70 1.00 1.01 0.77 0.93 0.98 0.83 0.48
0.16 0.17 0.24 0.24 0.27 0.28 0.50 0.65 0.63 0.52 0.53 0.45 0.33 0.24 0.28 0.30 0.44 0.64 0.62 0.76 0.99 0.87 0.72 0.62 0.85 0.99 0.64
0.31 0.34 0.35 0.27 0.32 0.42 0.53 0.54 0.52 0.47 0.37 0.25 0.26 0.29 0.31 0.26 0.27 0.57 0.73 0.76 0.69 0.59 0.56 0.52 0.68 0.85 0.54

GFSFLT2_prec_precacc_036.txt.gz
Total_Precipitation_Accumulation
0.00 0.00 0.02 0.03 0.03 0.05 0.05 0.04 0.05 0.11 0.15 0.14 0.12 0.14 0.17 0.21 0.26 0.31 0.37 0.41 0.42 0.42 0.47 0.54 0.60 0.66 0.81
0.01 0.00 0.00 0.01 0.02 0.03 0.05 0.09 0.08 0.05 0.08 0.09 0.10 0.12 0.14 0.15 0.18 0.23 0.30 0.39 0.48 0.57 0.62 0.61 0.55 0.59 0.70
0.04 0.00 0.01 0.01 0.04 0.04 0.04 0.04 0.04 0.07 0.11 0.13 0.13 0.13 0.13 0.14 0.20 0.26 0.34 0.44 0.50 0.54 0.61 0.73 0.80 0.78 0.65
0.16 0.13 0.08 0.07 0.07 0.04 0.04 0.04 0.04 0.03 0.06 0.12 0.15 0.16 0.15 0.18 0.21 0.26 0.28 0.34 0.46 0.53 0.58 0.63 0.65 0.65 0.63
0.31 0.28 0.16 0.05 0.04 0.04 0.07 0.06 0.05 0.04 0.06 0.11 0.11 0.10 0.09 0.16 0.25 0.28 0.31 0.37 0.50 0.69 0.81 0.89 0.96 0.95 0.95
0.38 0.13 0.03 0.02 0.03 0.13 0.27 0.27 0.18 0.03 0.05 0.05 0.05 0.06 0.08 0.15 0.24 0.25 0.31 0.40 0.46 0.54 0.61 0.62 0.63 0.68 0.74
0.07 0.06 0.08 0.13 0.42 0.46 0.26 0.19 0.11 0.03 0.09 0.12 0.08 0.10 0.13 0.16 0.24 0.29 0.36 0.45 0.52 0.56 0.54 0.55 0.58 0.57 0.54
0.05 0.11 0.25 0.29 0.22 0.14 0.13 0.16 0.10 0.05 0.10 0.27 0.10 0.10 0.08 0.16 0.30 0.24 0.30 0.42 0.55 0.61 0.61 0.55 0.52 0.61 0.62
0.15 0.12 0.05 0.02 0.04 0.28 0.38 0.37 0.24 0.05 0.06 0.22 0.16 0.13 0.11 0.17 0.33 0.39 0.42 0.45 0.44 0.40 0.39 0.39 0.46 0.48 0.58
0.02 0.00 0.01 0.02 0.07 0.17 0.48 0.88 0.43 0.32 0.07 0.42 0.27 0.21 0.48 0.19 0.34 0.44 0.42 0.44 0.40 0.39 0.37 0.38 0.39 0.41 0.43
0.00 0.00 0.01 0.01 0.04 0.08 0.23 0.81 0.98 0.59 0.12 0.76 0.74 0.26 0.50 0.32 0.38 0.47 0.44 0.51 0.59 0.70 0.79 0.64 0.56 0.53 0.60
0.03 0.02 0.02 0.03 0.03 0.04 0.09 0.20 0.44 0.76 0.34 0.50 0.94 0.45 0.64 0.53 0.46 0.48 0.49 0.64 0.93 1.16 1.26 0.78 0.70 0.65 0.68
0.10 0.05 0.04 0.05 0.05 0.07 0.12 0.16 0.21 0.28 0.34 0.43 0.72 0.68 0.73 0.67 0.50 0.41 0.63 0.73 0.85 1.00 1.08 1.13 0.97 0.69 0.58
0.19 0.08 0.04 0.05 0.08 0.17 0.34 0.29 0.38 0.29 0.34 0.44 0.58 0.69 0.58 0.42 0.55 0.52 0.57 0.90 0.91 0.93 0.88 1.06 1.09 0.70 0.34
0.17 0.15 0.09 0.09 0.11 0.21 0.45 0.56 0.61 0.51 0.45 0.41 0.32 0.31 0.39 0.42 0.43 0.46 0.54 0.70 1.01 1.04 0.81 0.96 0.98 0.83 0.48
0.17 0.17 0.25 0.25 0.28 0.29 0.50 0.65 0.64 0.53 0.53 0.45 0.33 0.25 0.28 0.30 0.44 0.64 0.63 0.76 0.99 0.89 0.76 0.67 0.86 1.00 0.65
0.31 0.35 0.36 0.28 0.33 0.43 0.53 0.54 0.52 0.47 0.37 0.26 0.26 0.30 0.33 0.26 0.27 0.57 0.76 0.77 0.70 0.61 0.59 0.57 0.73 0.87 0.56

GFSFLT2_prec_precacc_039.txt.gz
Total_Precipitation_Accumulation
0.00 0.00 0.02 0.03 0.03 0.05 0.05 0.04 0.05 0.11 0.15 0.14 0.12 0.14 0.17 0.21 0.26 0.31 0.37 0.42 0.42 0.44 0.49 0.58 0.64 0.70 0.85
0.01 0.00 0.00 0.01 0.02 0.03 0.05 0.09 0.08 0.05 0.08 0.09 0.10 0.12 0.14 0.15 0.18 0.23 0.31 0.39 0.48 0.58 0.64 0.63 0.58 0.63 0.74
0.04 0.00 0.01 0.01 0.04 0.04 0.04 0.04 0.04 0.07 0.11 0.13 0.13 0.13 0.13 0.14 0.20 0.26 0.34 0.44 0.50 0.54 0.62 0.73 0.81 0.79 0.66
0.16 0.14 0.09 0.07 0.07 0.04 0.04 0.04 0.04 0.03 0.06 0.12 0.15 0.16 0.15 0.18 0.21 0.26 0.28 0.34 0.46 0.53 0.59 0.63 0.66 0.66 0.63
0.32 0.29 0.16 0.05 0.04 0.04 0.07 0.06 0.05 0.04 0.06 0.11 0.11 0.10 0.09 0.16 0.25 0.28 0.31 0.37 0.50 0.70 0.81 0.90 0.97 0.96 0.96
0.40 0.15 0.03 0.02 0.03 0.13 0.27 0.28 0.18 0.03 0.05 0.05 0.05 0.06 0.08 0.15 0.24 0.25 0.31 0.40 0.46 0.54 0.61 0.62 0.64 0.69 0.75
0.07 0.06 0.08 0.13 0.42 0.47 0.27 0.19 0.12 0.03 0.09 0.12 0.08 0.10 0.13 0.16 0.24 0.29 0.36 0.45 0.52 0.56 0.54 0.56 0.59 0.58 0.55
0.05 0.11 0.25 0.29 0.23 0.16 0.13 0.16 0.10 0.05 0.10 0.28 0.10 0.10 0.08 0.16 0.30 0.24 0.30 0.42 0.55 0.61 0.61 0.56 0.54 0.63 0.64
0.15 0.13 0.06 0.02 0.04 0.28 0.39 0.38 0.24 0.05 0.06 0.22 0.16 0.13 0.11 0.17 0.33 0.39 0.42 0.45 0.44 0.40 0.39 0.40 0.47 0.50 0.60
0.02 0.00 0.01 0.02 0.07 0.17 0.48 0.91 0.44 0.33 0.07 0.43 0.27 0.22 0.50 0.19 0.34 0.44 0.42 0.44 0.40 0.39 0.37 0.38 0.41 0.45 0.46
0.00 0.00 0.01 0.01 0.04 0.08 0.23 0.83 1.02 0.61 0.12 0.79 0.78 0.26 0.52 0.32 0.38 0.47 0.44 0.51 0.59 0.70 0.79 0.64 0.57 0.56 0.66
0.03 0.02 0.02 0.03 0.03 0.04 0.09 0.21 0.44 0.78 0.34 0.51 1.00 0.47 0.68 0.55 0.46 0.48 0.49 0.64 0.93 1.16 1.26 0.79 0.72 0.67 0.71
0.10 0.05 0.04 0.05 0.05 0.07 0.12 0.17 0.22 0.28 0.34 0.43 0.74 0.70 0.77 0.71 0.52 0.42 0.63 0.73 0.85 1.00 1.08 1.14 0.99 0.71 0.61
0.20 0.08 0.04 0.06 0.08 0.17 0.35 0.29 0.39 0.29 0.34 0.44 0.58 0.70 0.62 0.44 0.57 0.53 0.57 0.90 0.91 0.93 0.89 1.07 1.09 0.71 0.34
0.18 0.15 0.09 0.09 0.12 0.21 0.45 0.57 0.62 0.51 0.46 0.41 0.32 0.31 0.40 0.43 0.45 0.46 0.54 0.70 1.01 1.05 0.83 0.99 0.98 0.83 0.49
0.17 0.17 0.26 0.25 0.28 0.29 0.50 0.66 0.65 0.53 0.54 0.45 0.33 0.25 0.28 0.30 0.44 0.64 0.63 0.76 0.99 0.89 0.77 0.71 0.88 1.00 0.65
0.32 0.35 0.37 0.29 0.33 0.43 0.53 0.55 0.53 0.47 0.37 0.26 0.27 0.32 0.36 0.27 0.27 0.57 0.77 0.78 0.71 0.61 0.59 0.59 0.77 0.88 0.58

GFSFLT2_prec_precacc_042.txt.gz
Total_Precipitation_Accumulation
0.00 0.00 0.02 0.03 0.03 0.05 0.05 0.04 0.05 0.11 0.15 0.14 0.12 0.14 0.17 0.22 0.27 0.31 0.37 0.42 0.43 0.44 0.51 0.62 0.69 0.75 0.90
0.01 0.00 0.00 0.01 0.02 0.03 0.05 0.09 0.08 0.05 0.08 0.09 0.10 0.12 0.14 0.15 0.18 0.23 0.31 0.39 0.49 0.59 0.64 0.64 0.59 0.64 0.78
0.04 0.00 0.01 0.01 0.04 0.04 0.04 0.04 0.04 0.07 0.11 0.13 0.13 0.13 0.13 0.14 0.20 0.27 0.35 0.44 0.50 0.54 0.62 0.73 0.81 0.80 0.67
0.16 0.14 0.09 0.07 0.07 0.04 0.04 0.04 0.04 0.03 0.06 0.12 0.15 0.16 0.15 0.18 0.21 0.26 0.28 0.34 0.46 0.53 0.59 0.64 0.66 0.67 0.64
0.33 0.30 0.17 0.05 0.04 0.04 0.07 0.06 0.05 0.04 0.06 0.11 0.11 0.10 0.09 0.16 0.25 0.28 0.31 0.37 0.50 0.70 0.81 0.90 0.97 0.97 0.97
0.41 0.15 0.04 0.02 0.03 0.13 0.27 0.29 0.19 0.03 0.05 0.05 0.05 0.06 0.08 0.15 0.24 0.25 0.31 0.40 0.46 0.54 0.62 0.63 0.64 0.70 0.76
0.08 0.07 0.08 0.13 0.42 0.47 0.28 0.21 0.13 0.03 0.09 0.12 0.08 0.10 0.13 0.16 0.24 0.29 0.36 0.45 0.52 0.56 0.55 0.56 0.60 0.58 0.57
0.05 0.11 0.25 0.29 0.24 0.20 0.16 0.16 0.10 0.05 0.10 0.28 0.10 0.10 0.08 0.16 0.30 0.24 0.30 0.42 0.55 0.61 0.61 0.56 0.55 0.63 0.65
0.15 0.13 0.06 0.03 0.04 0.29 0.39 0.38 0.25 0.05 0.06 0.22 0.16 0.13 0.11 0.17 0.33 0.39 0.42 0.45 0.44 0.40 0.39 0.40 0.47 0.51 0.61
0.02 0.00 0.01 0.02 0.07 0.17 0.48 0.94 0.45 0.33 0.07 0.44 0.28 0.22 0.52 0.19 0.34 0.44 0.42 0.44 0.40 0.39 0.37 0.38 0.41 0.46 0.47
0.00 0.00 0.01 0.01 0.04 0.08 0.23 0.86 1.06 0.63 0.12 0.82 0.82 0.27 0.55 0.33 0.38 0.47 0.44 0.51 0.59 0.70 0.79 0.64 0.58 0.58 0.70
0.03 0.02 0.02 0.03 0.03 0.04 0.09 0.21 0.45 0.79 0.34 0.52 1.06 0.49 0.72 0.57 0.46 0.48 0.49 0.64 0.93 1.16 1.26 0.79 0.72 0.67 0.72
0.10 0.05 0.04 0.05 0.05 0.07 0.12 0.17 0.22 0.28 0.34 0.43 0.75 0.72 0.81 0.74 0.53 0.42 0.63 0.73 0.85 1.00 1.08 1.14 0.99 0.71 0.61
0.20 0.08 0.04 0.06 0.08 0.17 0.35 0.29 0.39 0.30 0.34 0.44 0.58 0.72 0.66 0.46 0.59 0.54 0.57 0.90 0.91 0.93 0.89 1.07 1.09 0.71 0.34
0.18 0.16 0.09 0.09 0.12 0.21 0.45 0.58 0.63 0.51 0.46 0.41 0.32 0.31 0.40 0.44 0.48 0.47 0.54 0.70 1.01 1.05 0.83 0.99 0.99 0.83 0.49
0.18 0.18 0.27 0.26 0.29 0.29 0.50 0.67 0.66 0.53 0.54 0.46 0.34 0.26 0.28 0.30 0.46 0.67 0.64 0.76 0.99 0.89 0.77 0.73 0.88 1.00 0.65
0.33 0.36 0.38 0.30 0.33 0.44 0.54 0.55 0.53 0.48 0.38 0.26 0.28 0.35 0.39 0.27 0.27 0.57 0.78 0.78 0.71 0.61 0.60 0.59 0.77 0.88 0.58

GFSFLT2_prec_precacc_045.txt.gz
Total_Precipitation_Accumulation
0.00 0.00 0.02 0.03 0.03 0.05 0.05 0.04 0.05 0.11 0.15 0.14 0.12 0.14 0.17 0.22 0.27 0.31 0.37 0.43 0.44 0.45 0.52 0.66 0.73 0.79 0.94
0.01 0.00 0.00 0.01 0.02 0.03 0.05 0.09 0.08 0.05 0.08 0.09 0.10 0.12 0.14 0.15 0.19 0.23 0.31 0.40 0.49 0.59 0.65 0.64 0.60 0.66 0.81
0.04 0.00 0.01 0.01 0.04 0.04 0.04 0.04 0.04 0.07 0.11 0.13 0.13 0.13 0.13 0.15 0.20 0.27 0.35 0.44 0.50 0.54 0.62 0.73 0.82 0.80 0.68
0.16 0.14 0.09 0.07 0.07 0.04 0.04 0.04 0.04 0.03 0.06 0.12 0.15 0.16 0.15 0.18 0.21 0.26 0.28 0.34 0.46 0.53 0.59 0.64 0.67 0.68 0.66
0.33 0.30 0.17 0.05 0.04 0.04 0.07 0.06 0.05 0.04 0.06 0.11 0.11 0.10 0.09 0.16 0.25 0.28 0.31 0.37 0.50 0.70 0.82 0.91 0.98 0.98 0.99
0.41 0.16 0.04 0.02 0.03 0.13 0.27 0.29 0.20 0.03 0.05 0.05 0.05 0.06 0.08 0.15 0.24 0.25 0.31 0.41 0.47 0.55 0.62 0.63 0.65 0.71 0.77
0.08 0.07 0.08 0.13 0.42 0.47 0.29 0.23 0.14 0.03 0.09 0.12 0.08 0.10 0.13 0.16 0.24 0.29 0.36 0.45 0.52 0.56 0.55 0.56 0.60 0.59 0.57
0.05 0.11 0.25 0.29 0.24 0.24 0.18 0.17 0.10 0.05 0.10 0.28 0.10 0.10 0.08 0.16 0.30 0.24 0.30 0.42 0.55 0.61 0.61 0.56 0.55 0.64 0.66
0.15 0.13 0.06 0.03 0.04 0.29 0.39 0.39 0.25 0.05 0.06 0.22 0.16 0.13 0.11 0.17 0.33 0.39 0.42 0.45 0.44 0.40 0.39 0.40 0.47 0.51 0.62
0.02 0.00 0.01 0.02 0.07 0.17 0.48 0.95 0.46 0.35 0.07 0.46 0.29 0.23 0.53 0.19 0.34 0.44 0.42 0.44 0.40 0.39 0.37 0.38 0.41 0.46 0.47
0.00 0.00 0.01 0.01 0.04 0.08 0.23 0.87 1.09 0.65 0.12 0.85 0.86 0.27 0.57 0.34 0.38 0.47 0.44 0.51 0.59 0.70 0.79 0.64 0.58 0.58 0.70
0.03 0.02 0.02 0.03 0.03 0.04 0.09 0.21 0.45 0.80 0.34 0.53 1.12 0.51 0.75 0.58 0.46 0.48 0.49 0.64 0.93 1.16 1.26 0.79 0.72 0.67 0.72
0.10 0.05 0.04 0.05 0.05 0.07 0.12 0.17 0.22 0.28 0.34 0.43 0.77 0.74 0.84 0.77 0.54 0.42 0.63 0.73 0.85 1.00 1.08 1.14 0.99 0.71 0.62
0.20 0.08 0.04 0.06 0.08 0.17 0.36 0.29 0.40 0.30 0.34 0.44 0.58 0.73 0.69 0.47 0.60 0.55 0.57 0.90 0.91 0.93 0.89 1.07 1.09 0.71 0.34
0.18 0.16 0.09 0.09 0.12 0.21 0.45 0.59 0.65 0.52 0.46 0.41 0.32 0.31 0.40 0.44 0.49 0.47 0.54 0.70 1.01 1.05 0.84 1.00 0.99 0.83 0.49
0.18 0.18 0.27 0.26 0.29 0.29 0.50 0.68 0.67 0.54 0.54 0.46 0.34 0.27 0.28 0.30 0.47 0.69 0.65 0.76 0.99 0.89 0.77 0.74 0.89 1.00 0.65
0.33 0.36 0.38 0.31 0.34 0.44 0.54 0.56 0.54 0.48 0.38 0.26 0.29 0.38 0.43 0.28 0.27 0.57 0.81 0.79 0.71 0.62 0.60 0.60 0.78 0.88 0.58

GFSFLT2_prec_precacc_048.txt.gz
Total_Precipitation_Accumulation
0.00 0.00 0.02 0.03 0.03 0.05 0.05 0.04 0.05 0.11 0.15 0.14 0.12 0.14 0.17 0.22 0.27 0.31 0.38 0.43 0.44 0.46 0.54 0.70 0.78 0.84 0.99
0.01 0.00 0.00 0.01 0.02 0.03 0.05 0.09 0.08 0.05 0.08 0.09 0.10 0.12 0.14 0.16 0.19 0.24 0.31 0.40 0.50 0.60 0.65 0.65 0.61 0.68 0.85
0.04 0.00 0.01 0.01 0.04 0.04 0.04 0.04 0.04 0.07 0.11 0.13 0.13 0.13 0.13 0.15 0.21 0.27 0.35 0.44 0.51 0.54 0.62 0.74 0.82 0.81 0.70
0.16 0.14 0.09 0.07 0.07 0.04 0.04 0.04 0.04 0.03 0.06 0.12 0.15 0.16 0.15 0.18 0.21 0.26 0.28 0.34 0.46 0.54 0.60 0.65 0.68 0.69 0.67
0.33 0.30 0.17 0.05 0.04 0.04 0.07 0.06 0.05 0.04 0.06 0.11 0.11 0.10 0.09 0.16 0.25 0.28 0.31 0.37 0.50 0.70 0.82 0.91 0.99 1.00 1.01
0.41 0.16 0.04 0.02 0.03 0.13 0.27 0.29 0.20 0.03 0.05 0.05 0.05 0.06 0.08 0.15 0.24 0.25 0.31 0.41 0.47 0.55 0.62 0.64 0.66 0.73 0.79
0.08 0.07 0.08 0.13 0.42 0.48 0.30 0.24 0.15 0.03 0.09 0.12 0.08 0.10 0.13 0.16 0.24 0.29 0.36 0.45 0.52 0.56 0.55 0.57 0.61 0.60 0.58
0.05 0.11 0.25 0.29 0.25 0.27 0.20 0.17 0.10 0.05 0.10 0.29 0.10 0.10 0.08 0.16 0.30 0.24 0.30 0.42 0.55 0.62 0.61 0.56 0.55 0.64 0.66
0.15 0.13 0.06 0.03 0.04 0.29 0.39 0.39 0.25 0.05 0.06 0.22 0.16 0.13 0.11 0.17 0.33 0.39 0.42 0.45 0.44 0.40 0.39 0.40 0.47 0.52 0.62
0.02 0.00 0.01 0.02 0.07 0.17 0.48 0.96 0.47 0.36 0.07 0.46 0.29 0.23 0.55 0.20 0.34 0.44 0.42 0.44 0.40 0.39 0.37 0.38 0.41 0.46 0.47
0.00 0.00 0.01 0.01 0.04 0.08 0.23 0.88 1.11 0.67 0.12 0.88 0.91 0.28 0.60 0.34 0.38 0.47 0.44 0.51 0.59 0.70 0.79 0.64 0.58 0.58 0.70
0.03 0.02 0.02 0.03 0.03 0.04 0.09 0.21 0.45 0.81 0.34 0.54 1.18 0.52 0.79 0.60 0.46 0.48 0.49 0.64 0.93 1.16 1.26 0.79 0.72 0.67 0.72
0.10 0.05 0.04 0.05 0.05 0.07 0.12 0.17 0.22 0.28 0.34 0.43 0.78 0.75 0.86 0.79 0.55 0.42 0.63 0.73 0.85 1.00 1.08 1.14 0.99 0.71 0.62
0.20 0.08 0.04 0.06 0.08 0.17 0.36 0.29 0.40 0.30 0.34 0.44 0.58 0.73 0.70 0.48 0.61 0.56 0.57 0.90 0.91 0.93 0.89 1.07 1.09 0.71 0.34
0.18 0.16 0.10 0.09 0.12 0.21 0.46 0.60 0.66 0.52 0.46 0.41 0.32 0.31 0.40 0.45 0.50 0.47 0.54 0.70 1.01 1.05 0.84 1.01 0.99 0.83 0.49
0.18 0.18 0.28 0.27 0.30 0.30 0.51 0.69 0.68 0.54 0.54 0.46 0.34 0.28 0.29 0.30 0.47 0.70 0.66 0.76 0.99 0.89 0.77 0.75 0.90 1.00 0.65
0.33 0.36 0.39 0.32 0.34 0.45 0.54 0.57 0.55 0.48 0.38 0.26 0.30 0.42 0.46 0.28 0.27 0.58 0.88 0.84 0.72 0.62 0.60 0.60 0.78 0.89 0.58

GFSFLT2_prec_precacc_051.txt.gz
Total_Precipitation_Accumulation
0.00 0.00 0.02 0.03 0.03 0.05 0.05 0.04 0.05 0.11 0.15 0.14 0.12 0.14 0.17 0.22 0.27 0.31 0.38 0.44 0.46 0.47 0.55 0.72 0.81 0.87 1.02
0.01 0.00 0.00 0.01 0.02 0.03 0.05 0.09 0.08 0.05 0.08 0.09 0.10 0.12 0.14 0.16 0.19 0.24 0.32 0.41 0.50 0.60 0.65 0.65 0.61 0.69 0.86
0.04 0.00 0.01 0.01 0.04 0.04 0.04 0.04 0.04 0.07 0.11 0.13 0.13 0.13 0.13 0.15 0.21 0.27 0.35 0.44 0.51 0.54 0.62 0.74 0.82 0.82 0.71
0.16 0.14 0.09 0.07 0.07 0.04 0.04 0.04 0.04 0.03 0.06 0.12 0.15 0.16 0.15 0.18 0.21 0.26 0.28 0.34 0.46 0.54 0.60 0.65 0.69 0.70 0.68
0.33 0.30 0.17 0.05 0.04 0.04 0.07 0.06 0.05 0.04 0.06 0.11 0.11 0.10 0.09 0.16 0.25 0.28 0.31 0.37 0.51 0.71 0.83 0.92 1.00 1.01 1.02
0.41 0.16 0.04 0.02 0.03 0.13 0.27 0.29 0.20 0.03 0.05 0.05 0.05 0.06 0.08 0.15 0.24 0.25 0.31 0.41 0.47 0.55 0.63 0.64 0.67 0.74 0.81
0.08 0.07 0.08 0.13 0.42 0.48 0.30 0.25 0.15 0.03 0.09 0.12 0.08 0.10 0.13 0.16 0.24 0.29 0.36 0.45 0.52 0.56 0.55 0.57 0.61 0.61 0.60
0.05 0.11 0.25 0.29 0.25 0.28 0.20 0.17 0.10 0.05 0.10 0.29 0.10 0.10 0.08 0.16 0.30 0.24 0.30 0.42 0.55 0.62 0.62 0.57 0.55 0.64 0.67
0.15 0.13 0.06 0.03 0.04 0.29 0.39 0.39 0.25 0.05 0.06 0.22 0.16 0.13 0.11 0.17 0.33 0.39 0.42 0.45 0.44 0.40 0.39 0.40 0.47 0.52 0.62
0.02 0.00 0.01 0.02 0.07 0.17 0.48 0.96 0.47 0.37 0.07 0.47 0.30 0.23 0.55 0.20 0.34 0.44 0.42 0.44 0.40 0.39 0.37 0.38 0.41 0.46 0.47
0.00 0.00 0.01 0.01 0.04 0.08 0.23 0.88 1.12 0.69 0.12 0.92 0.94 0.28 0.62 0.35 0.38 0.47 0.44 0.51 0.59 0.70 0.79 0.64 0.58 0.58 0.70
0.03 0.02 0.02 0.03 0.03 0.04 0.09 0.21 0.45 0.82 0.34 0.55 1.25 0.53 0.82 0.62 0.47 0.48 0.49 0.64 0.93 1.16 1.26 0.79 0.72 0.67 0.72
0.10 0.05 0.04 0.05 0.05 0.07 0.12 0.17 0.22 0.28 0.34 0.43 0.80 0.77 0.90 0.81 0.56 0.43 0.63 0.73 0.85 1.00 1.08 1.14 0.99 0.71 0.62
0.20 0.08 0.04 0.06 0.08 0.17 0.36 0.30 0.41 0.30 0.34 0.44 0.58 0.74 0.72 0.49 0.62 0.58 0.57 0.91 0.91 0.93 0.89 1.07 1.09 0.71 0.34
0.18 0.17 0.10 0.09 0.12 0.21 0.46 0.60 0.67 0.52 0.46 0.41 0.32 0.31 0.40 0.45 0.51 0.47 0.54 0.70 1.01 1.05 0.84 1.01 0.99 0.83 0.49
0.19 0.19 0.28 0.27 0.30 0.30 0.51 0.70 0.68 0.54 0.54 0.46 0.34 0.28 0.29 0.30 0.47 0.70 0.67 0.76 0.99 0.89 0.77 0.77 0.91 1.00 0.65
0.34 0.36 0.39 0.33 0.35 0.45 0.55 0.57 0.55 0.48 0.38 0.26 0.31 0.45 0.50 0.29 0.27 0.58 0.95 0.90 0.74 0.64 0.60 0.60 0.79 0.89 0.58

GFSFLT2_prec_precacc_054.txt.gz
Total_Precipitation_Accumulation
0.00 0.00 0.02 0.03 0.03 0.05 0.05 0.04 0.05 0.11 0.15 0.14 0.12 0.14 0.17 0.22 0.27 0.31 0.38 0.44 0.47 0.48 0.57 0.74 0.84 0.89 1.05
0.01 0.00 0.00 0.01 0.02 0.03 0.05 0.09 0.08 0.05 0.08 0.09 0.10 0.12 0.14 0.16 0.19 0.24 0.33 0.42 0.51 0.60 0.66 0.66 0.62 0.69 0.87
0.04 0.00 0.01 0.01 0.04 0.04 0.04 0.04 0.04 0.07 0.11 0.13 0.13 0.13 0.13 0.15 0.21 0.27 0.35 0.45 0.51 0.54 0.62 0.74 0.82 0.82 0.71
0.16 0.14 0.09 0.07 0.07 0.04 0.04 0.04 0.04 0.03 0.06 0.12 0.15 0.16 0.15 0.18 0.21 0.26 0.28 0.34 0.47 0.54 0.60 0.65 0.69 0.71 0.69
0.33 0.30 0.17 0.05 0.04 0.04 0.07 0.06 0.05 0.04 0.06 0.11 0.11 0.10 0.09 0.16 0.25 0.28 0.31 0.37 0.51 0.71 0.83 0.92 1.01 1.02 1.03
0.41 0.16 0.04 0.02 0.03 0.13 0.27 0.29 0.21 0.03 0.05 0.05 0.05 0.06 0.08 0.15 0.24 0.25 0.31 0.41 0.47 0.55 0.63 0.65 0.68 0.75 0.82
0.08 0.07 0.08 0.13 0.42 0.48 0.31 0.26 0.16 0.03 0.09 0.12 0.08 0.10 0.13 0.16 0.24 0.29 0.36 0.45 0.52 0.57 0.56 0.57 0.62 0.62 0.61
0.05 0.11 0.25 0.29 0.25 0.29 0.21 0.18 0.10 0.05 0.10 0.29 0.10 0.10 0.08 0.16 0.30 0.24 0.30 0.42 0.55 0.62 0.62 0.57 0.55 0.65 0.67
0.15 0.13 0.06 0.03 0.04 0.29 0.39 0.39 0.25 0.05 0.06 0.22 0.16 0.13 0.11 0.17 0.33 0.39 0.42 0.45 0.44 0.40 0.39 0.40 0.47 0.52 0.62
0.02 0.00 0.01 0.02 0.07 0.17 0.48 0.96 0.48 0.38 0.07 0.47 0.30 0.23 0.56 0.20 0.34 0.44 0.42 0.44 0.40 0.39 0.37 0.38 0.42 0.46 0.47
0.00 0.00 0.01 0.01 0.04 0.08 0.23 0.88 1.13 0.70 0.12 0.94 0.97 0.28 0.63 0.35 0.38 0.47 0.44 0.51 0.59 0.70 0.79 0.64 0.58 0.58 0.70
0.03 0.02 0.02 0.03 0.03 0.04 0.09 0.21 0.46 0.82 0.34 0.57 1.30 0.53 0.85 0.63 0.47 0.48 0.49 0.64 0.93 1.16 1.26 0.79 0.72 0.68 0.73
0.10 0.05 0.04 0.05 0.05 0.07 0.12 0.17 0.22 0.28 0.34 0.43 0.81 0.77 0.92 0.83 0.57 0.43 0.63 0.73 0.85 1.00 1.08 1.14 0.99 0.71 0.62
0.20 0.08 0.04 0.06 0.08 0.17 0.36 0.30 0.41 0.30 0.34 0.44 0.58 0.75 0.75 0.50 0.64 0.59 0.57 0.91 0.91 0.93 0.89 1.07 1.09 0.71 0.34
0.18 0.17 0.10 0.10 0.12 0.21 0.46 0.61 0.68 0.52 0.46 0.41 0.32 0.31 0.41 0.46 0.54 0.48 0.54 0.70 1.01 1.05 0.84 1.01 0.99 0.83 0.49
0.19 0.19 0.28 0.27 0.30 0.30 0.51 0.71 0.69 0.54 0.54 0.46 0.34 0.28 0.29 0.30 0.47 0.72 0.68 0.76 0.99 0.89 0.78 0.78 0.92 1.00 0.65
0.34 0.36 0.40 0.33 0.35 0.45 0.55 0.58 0.55 0.48 0.38 0.26 0.32 0.49 0.53 0.29 0.27 0.60 1.06 0.95 0.75 0.65 0.60 0.60 0.79 0.89 0.58

GFSFLT2_prec_precacc_057.txt.gz
Total_Precipitation_Accumulation
0.02 0.01 0.02 0.03 0.03 0.05 0.05 0.04 0.05 0.11 0.15 0.14 0.12 0.14 0.17 0.22 0.27 0.31 0.38 0.44 0.47 0.49 0.58 0.76 0.86 0.92 1.07
0.01 0.01 0.00 0.01 0.02 0.03 0.05 0.09 0.08 0.05 0.08 0.09 0.10 0.12 0.14 0.16 0.19 0.24 0.33 0.42 0.51 0.61 0.66 0.66 0.62 0.70 0.88
0.04 0.00 0.01 0.01 0.04 0.04 0.04 0.04 0.04 0.07 0.11 0.13 0.13 0.13 0.13 0.15 0.21 0.27 0.35 0.45 0.51 0.54 0.62 0.74 0.82 0.82 0.71
0.16 0.14 0.09 0.07 0.07 0.04 0.04 0.04 0.04 0.03 0.06 0.12 0.15 0.16 0.15 0.18 0.21 0.26 0.28 0.34 0.47 0.54 0.60 0.65 0.69 0.71 0.69
0.33 0.30 0.17 0.05 0.04 0.04 0.07 0.06 0.05 0.04 0.06 0.11 0.11 0.10 0.09 0.16 0.25 0.28 0.31 0.37 0.51 0.71 0.83 0.93 1.01 1.03 1.05
0.41 0.16 0.04 0.02 0.03 0.13 0.27 0.29 0.21 0.03 0.05 0.05 0.05 0.06 0.08 0.15 0.24 0.25 0.31 0.41 0.47 0.56 0.63 0.65 0.68 0.76 0.83
0.08 0.07 0.08 0.13 0.42 0.49 0.31 0.26 0.16 0.03 0.09 0.12 0.08 0.10 0.13 0.16 0.24 0.29 0.36 0.45 0.52 0.57 0.56 0.57 0.62 0.62 0.62
0.05 0.11 0.25 0.29 0.25 0.30 0.21 0.18 0.10 0.05 0.10 0.29 0.10 0.10 0.08 0.16 0.30 0.24 0.30 0.42 0.55 0.62 0.62 0.57 0.56 0.65 0.68
0.15 0.13 0.06 0.03 0.04 0.29 0.39 0.39 0.26 0.05 0.06 0.22 0.16 0.13 0.11 0.17 0.33 0.39 0.42 0.45 0.44 0.40 0.39 0.40 0.48 0.52 0.62
0.02 0.00 0.01 0.02 0.07 0.17 0.48 0.97 0.49 0.39 0.07 0.48 0.30 0.23 0.56 0.20 0.34 0.44 0.42 0.44 0.40 0.39 0.37 0.38 0.42 0.46 0.47
0.00 0.00 0.01 0.01 0.04 0.08 0.23 0.88 1.14 0.71 0.12 0.96 0.99 0.29 0.64 0.36 0.38 0.47 0.44 0.51 0.59 0.70 0.79 0.64 0.58 0.58 0.71
0.03 0.02 0.02 0.03 0.03 0.04 0.09 0.21 0.46 0.82 0.34 0.57 1.33 0.54 0.87 0.64 0.47 0.48 0.49 0.64 0.93 1.16 1.26 0.79 0.72 0.68 0.73
0.10 0.05 0.04 0.05 0.05 0.07 0.12 0.17 0.22 0.28 0.34 0.43 0.82 0.78 0.94 0.85 0.58 0.43 0.63 0.73 0.85 1.00 1.08 1.14 0.99 0.71 0.62
0.20 0.08 0.04 0.06 0.08 0.17 0.36 0.30 0.41 0.30 0.34 0.44 0.58 0.75 0.77 0.51 0.65 0.59 0.57 0.91 0.91 0.93 0.89 1.07 1.09 0.71 0.34
0.18 0.17 0.10 0.10 0.12 0.21 0.46 0.61 0.68 0.52 0.46 0.41 0.32 0.31 0.41 0.47 0.57 0.48 0.54 0.70 1.01 1.05 0.84 1.02 0.99 0.83 0.49
0.19 0.19 0.28 0.27 0.30 0.30 0.51 0.71 0.70 0.54 0.54 0.46 0.34 0.29 0.29 0.30 0.48 0.73 0.69 0.76 0.99 0.89 0.78 0.80 0.92 1.00 0.65
0.34 0.36 0.40 0.33 0.35 0.45 0.55 0.58 0.56 0.48 0.38 0.26 0.33 0.51 0.56 0.30 0.27 0.61 1.14 0.97 0.75 0.65 0.60 0.61 0.80 0.89 0.58

GFSFLT2_prec_precacc_060.txt.gz
Total_Precipitation_Accumulation
0.14 0.12 0.08 0.05 0.03 0.05 0.05 0.04 0.05 0.11 0.15 0.14 0.12 0.14 0.17 0.22 0.27 0.31 0.38 0.44 0.47 0.49 0.58 0.77 0.88 0.94 1.10
0.09 0.06 0.03 0.03 0.03 0.03 0.05 0.09 0.08 0.05 0.08 0.09 0.10 0.12 0.14 0.16 0.19 0.25 0.33 0.43 0.51 0.61 0.67 0.67 0.63 0.70 0.88
0.06 0.02 0.03 0.02 0.05 0.04 0.04 0.04 0.04 0.07 0.11 0.13 0.13 0.13 0.13 0.15 0.21 0.27 0.35 0.45 0.51 0.55 0.62 0.74 0.83 0.82 0.71
0.18 0.14 0.09 0.07 0.07 0.04 0.04 0.04 0.04 0.03 0.06 0.12 0.15 0.16 0.15 0.18 0.21 0.26 0.28 0.34 0.47 0.54 0.60 0.65 0.69 0.71 0.70
0.33 0.30 0.17 0.05 0.04 0.04 0.07 0.06 0.05 0.04 0.06 0.11 0.11 0.10 0.09 0.16 0.25 0.28 0.31 0.37 0.51 0.71 0.83 0.93 1.02 1.04 1.06
0.41 0.16 0.04 0.02 0.03 0.13 0.27 0.29 0.21 0.03 0.05 0.05 0.05 0.06 0.08 0.15 0.24 0.25 0.31 0.41 0.47 0.56 0.63 0.66 0.69 0.77 0.84
0.08 0.07 0.08 0.13 0.42 0.49 0.31 0.26 0.16 0.03 0.09 0.12 0.08 0.10 0.13 0.16 0.24 0.29 0.36 0.45 0.52 0.57 0.56 0.58 0.62 0.62 0.62
0.05 0.11 0.25 0.29 0.26 0.30 0.21 0.18 0.10 0.05 0.10 0.29 0.10 0.10 0.08 0.16 0.30 0.24 0.30 0.42 0.55 0.62 0.62 0.57 0.56 0.65 0.68
0.15 0.13 0.06 0.03 0.04 0.29 0.39 0.39 0.26 0.05 0.06 0.22 0.16 0.13 0.11 0.17 0.33 0.39 0.42 0.45 0.44 0.40 0.39 0.40 0.48 0.52 0.63
0.02 0.00 0.01 0.02 0.07 0.17 0.48 0.97 0.49 0.39 0.07 0.48 0.30 0.23 0.57 0.20 0.34 0.44 0.42 0.44 0.40 0.39 0.37 0.38 0.42 0.46 0.48
0.00 0.00 0.01 0.01 0.04 0.08 0.23 0.88 1.14 0.71 0.12 0.98 1.00 0.29 0.65 0.36 0.38 0.47 0.44 0.51 0.59 0.70 0.79 0.64 0.58 0.58 0.71
0.03 0.02 0.02 0.03 0.03 0.04 0.09 0.21 0.46 0.83 0.34 0.58 1.35 0.54 0.88 0.65 0.47 0.48 0.49 0.64 0.93 1.16 1.26 0.79 0.72 0.68 0.73
0.10 0.05 0.04 0.05 0.05 0.07 0.12 0.17 0.22 0.28 0.34 0.43 0.82 0.78 0.95 0.87 0.58 0.43 0.63 0.73 0.85 1.00 1.08 1.14 0.99 0.71 0.62
0.20 0.08 0.04 0.06 0.08 0.17 0.37 0.30 0.41 0.30 0.34 0.44 0.58 0.76 0.77 0.52 0.66 0.60 0.57 0.91 0.91 0.93 0.89 1.07 1.09 0.71 0.35
0.18 0.17 0.10 0.10 0.12 0.21 0.46 0.62 0.69 0.52 0.46 0.41 0.32 0.32 0.42 0.48 0.58 0.48 0.54 0.70 1.01 1.05 0.85 1.02 0.99 0.83 0.49
0.19 0.19 0.29 0.27 0.30 0.30 0.51 0.72 0.70 0.55 0.55 0.46 0.34 0.29 0.29 0.30 0.48 0.73 0.69 0.77 1.00 0.90 0.78 0.82 0.93 1.00 0.65
0.34 0.37 0.40 0.33 0.35 0.45 0.55 0.58 0.56 0.49 0.38 0.26 0.34 0.53 0.59 0.30 0.27 0.61 1.17 0.98 0.75 0.65 0.60 0.61 0.81 0.89 0.58

GFSFLT2_prec_precacc_063.txt.gz
Total_Precipitation_Accumulation
0.24 0.23 0.18 0.14 0.08 0.06 0.05 0.04 0.05 0.11 0.15 0.14 0.12 0.14 0.17 0.22 0.27 0.31 0.38 0.44 0.47 0.49 0.59 0.78 0.89 0.94 1.11
0.16 0.11 0.06 0.04 0.03 0.03 0.05 0.09 0.08 0.05 0.08 0.09 0.10 0.12 0.14 0.16 0.19 0.25 0.33 0.43 0.51 0.61 0.67 0.67 0.63 0.71 0.88
0.07 0.02 0.03 0.02 0.05 0.04 0.04 0.04 0.04 0.07 0.11 0.13 0.13 0.13 0.13 0.15 0.21 0.27 0.35 0.45 0.51 0.55 0.62 0.74 0.83 0.82 0.71
0.18 0.14 0.09 0.07 0.07 0.04 0.04 0.04 0.04 0.03 0.06 0.12 0.15 0.16 0.15 0.18 0.21 0.26 0.28 0.34 0.47 0.54 0.60 0.65 0.69 0.71 0.70
0.33 0.30 0.17 0.05 0.04 0.04 0.07 0.06 0.05 0.04 0.06 0.11 0.11 0.10 0.09 0.16 0.25 0.28 0.31 0.37 0.51 0.71 0.83 0.93 1.02 1.04 1.07
0.41 0.16 0.04 0.02 0.03 0.13 0.27 0.29 0.21 0.03 0.05 0.05 0.05 0.06 0.08 0.15 0.24 0.25 0.31 0.41 0.47 0.56 0.64 0.66 0.69 0.77 0.84
0.08 0.07 0.08 0.13 0.42 0.49 0.31 0.26 0.16 0.03 0.09 0.12 0.08 0.10 0.13 0.16 0.24 0.29 0.36 0.45 0.52 0.57 0.56 0.58 0.62 0.62 0.62
0.05 0.11 0.25 0.29 0.26 0.30 0.21 0.18 0.10 0.05 0.10 0.29 0.10 0.10 0.08 0.16 0.30 0.24 0.30 0.42 0.55 0.62 0.62 0.57 0.56 0.65 0.68
0.15 0.13 0.06 0.03 0.04 0.29 0.39 0.39 0.26 0.05 0.06 0.22 0.16 0.13 0.11 0.17 0.33 0.39 0.42 0.45 0.44 0.40 0.39 0.40 0.48 0.53 0.63
0.02 0.00 0.01 0.02 0.07 0.17 0.48 0.97 0.49 0.39 0.07 0.48 0.30 0.23 0.58 0.20 0.34 0.44 0.42 0.44 0.40 0.39 0.37 0.38 0.42 0.46 0.48
0.00 0.00 0.01 0.01 0.04 0.08 0.23 0.88 1.14 0.71 0.12 0.99 1.01 0.29 0.66 0.36 0.38 0.47 0.44 0.51 0.59 0.70 0.79 0.64 0.58 0.58 0.71
0.03 0.02 0.02 0.03 0.03 0.04 0.09 0.21 0.46 0.83 0.34 0.59 1.37 0.54 0.89 0.66 0.47 0.48 0.49 0.64 0.93 1.16 1.26 0.79 0.72 0.68 0.73
0.10 0.05 0.04 0.05 0.05 0.07 0.12 0.17 0.22 0.28 0.34 0.43 0.82 0.78 0.96 0.88 0.59 0.43 0.63 0.73 0.85 1.00 1.08 1.14 0.99 0.71 0.62
0.20 0.08 0.04 0.06 0.08 0.17 0.37 0.30 0.41 0.30 0.34 0.44 0.58 0.77 0.78 0.52 0.67 0.61 0.57 0.91 0.91 0.93 0.90 1.07 1.09 0.71 0.35
0.18 0.17 0.10 0.10 0.12 0.21 0.46 0.62 0.69 0.52 0.46 0.41 0.32 0.32 0.43 0.49 0.59 0.48 0.54 0.70 1.01 1.05 0.86 1.03 0.99 0.83 0.49
0.19 0.19 0.29 0.28 0.31 0.30 0.51 0.72 0.71 0.55 0.55 0.46 0.34 0.30 0.30 0.30 0.48 0.73 0.69 0.77 1.00 0.90 0.79 0.84 0.93 1.00 0.65
0.34 0.37 0.40 0.34 0.36 0.46 0.55 0.59 0.56 0.49 0.38 0.26 0.34 0.55 0.61 0.31 0.27 0.61 1.17 0.99 0.75 0.66 0.60 0.61 0.81 0.89 0.58

GFSFLT2_prec_precacc_066.txt.gz
Total_Precipitation_Accumulation
0.35 0.27 0.22 0.16 0.09 0.07 0.05 0.04 0.05 0.11 0.15 0.14 0.12 0.14 0.17 0.22 0.27 0.31 0.38 0.45 0.47 0.49 0.59 0.78 0.89 0.95 1.11
0.17 0.12 0.07 0.04 0.03 0.03 0.05 0.09 0.08 0.05 0.08 0.09 0.10 0.12 0.14 0.16 0.19 0.25 0.33 0.43 0.51 0.61 0.67 0.67 0.63 0.71 0.89
0.10 0.04 0.03 0.03 0.05 0.04 0.04 0.04 0.04 0.07 0.11 0.13 0.13 0.13 0.13 0.15 0.21 0.27 0.35 0.45 0.51 0.55 0.62 0.74 0.83 0.82 0.71
0.18 0.14 0.09 0.07 0.07 0.04 0.04 0.04 0.04 0.03 0.06 0.12 0.15 0.16 0.15 0.18 0.21 0.26 0.28 0.34 0.47 0.54 0.60 0.66 0.69 0.71 0.70
0.33 0.30 0.17 0.05 0.04 0.04 0.07 0.06 0.05 0.04 0.06 0.11 0.11 0.10 0.09 0.16 0.25 0.28 0.31 0.37 0.51 0.71 0.84 0.93 1.02 1.04 1.07
0.41 0.16 0.04 0.02 0.03 0.13 0.27 0.29 0.21 0.03 0.05 0.05 0.05 0.06 0.08 0.15 0.24 0.25 0.31 0.41 0.47 0.56 0.64 0.66 0.69 0.77 0.85
0.08 0.07 0.08 0.13 0.42 0.49 0.31 0.26 0.16 0.03 0.09 0.12 0.08 0.10 0.13 0.16 0.24 0.29 0.36 0.45 0.52 0.57 0.56 0.58 0.63 0.62 0.63
0.05 0.11 0.25 0.29 0.26 0.30 0.21 0.18 0.10 0.05 0.10 0.29 0.10 0.10 0.08 0.16 0.30 0.24 0.30 0.42 0.55 0.62 0.62 0.58 0.56 0.65 0.68
0.15 0.13 0.06 0.03 0.04 0.29 0.39 0.39 0.26 0.05 0.06 0.22 0.16 0.13 0.11 0.17 0.33 0.39 0.42 0.45 0.44 0.40 0.39 0.40 0.48 0.53 0.63
0.02 0.00 0.01 0.02 0.07 0.17 0.48 0.97 0.49 0.39 0.07 0.48 0.30 0.24 0.58 0.20 0.34 0.44 0.42 0.44 0.40 0.39 0.37 0.38 0.42 0.46 0.48
0.00 0.00 0.01 0.01 0.04 0.08 0.23 0.88 1.14 0.71 0.12 1.00 1.01 0.29 0.66 0.36 0.38 0.47 0.44 0.51 0.59 0.70 0.79 0.64 0.58 0.59 0.71
0.03 0.02 0.02 0.03 0.03 0.04 0.09 0.21 0.46 0.83 0.34 0.59 1.38 0.55 0.90 0.67 0.47 0.48 0.49 0.64 0.93 1.16 1.26 0.79 0.72 0.68 0.73
0.10 0.05 0.04 0.05 0.05 0.07 0.12 0.17 0.22 0.28 0.34 0.43 0.83 0.79 0.98 0.90 0.60 0.43 0.63 0.73 0.85 1.00 1.08 1.14 0.99 0.71 0.62
0.20 0.08 0.04 0.06 0.08 0.17 0.37 0.30 0.41 0.30 0.34 0.44 0.58 0.78 0.80 0.53 0.68 0.61 0.57 0.92 0.91 0.93 0.90 1.07 1.09 0.71 0.35
0.18 0.17 0.10 0.10 0.12 0.21 0.46 0.62 0.69 0.52 0.46 0.41 0.32 0.32 0.43 0.49 0.59 0.49 0.54 0.71 1.02 1.05 0.87 1.05 0.99 0.83 0.49
0.19 0.19 0.29 0.28 0.31 0.30 0.51 0.73 0.71 0.55 0.55 0.46 0.34 0.30 0.30 0.31 0.48 0.73 0.69 0.77 1.00 0.90 0.79 0.84 0.93 1.00 0.65
0.34 0.37 0.41 0.34 0.36 0.46 0.55 0.59 0.57 0.49 0.38 0.27 0.34 0.56 0.64 0.32 0.27 0.61 1.17 0.99 0.75 0.66 0.60 0.62 0.82 0.89 0.58

GFSFLT2_prec_precacc_069.txt.gz
Total_Precipitation_Accumulation
0.59 0.51 0.40 0.30 0.18 0.12 0.06 0.04 0.05 0.11 0.15 0.14 0.12 0.14 0.17 0.22 0.27 0.31 0.38 0.45 0.47 0.49 0.59 0.78 0.89 0.95 1.12
0.31 0.19 0.12 0.06 0.04 0.04 0.05 0.09 0.08 0.05 0.08 0.09 0.10 0.12 0.14 0.16 0.19 0.25 0.33 0.43 0.51 0.61 0.67 0.67 0.63 0.71 0.89
0.10 0.04 0.03 0.03 0.05 0.04 0.04 0.04 0.04 0.07 0.11 0.13 0.13 0.13 0.13 0.15 0.21 0.27 0.35 0.45 0.51 0.55 0.62 0.74 0.83 0.82 0.71
0.18 0.14 0.09 0.07 0.07 0.04 0.04 0.04 0.04 0.03 0.06 0.12 0.15 0.16 0.15 0.18 0.21 0.26 0.28 0.34 0.47 0.54 0.60 0.66 0.69 0.71 0.70
0.33 0.30 0.17 0.05 0.04 0.04 0.07 0.06 0.05 0.04 0.06 0.11 0.11 0.10 0.09 0.16 0.25 0.28 0.31 0.37 0.51 0.71 0.84 0.93 1.02 1.04 1.07
0.41 0.16 0.04 0.02 0.03 0.13 0.27 0.29 0.21 0.03 0.05 0.05 0.05 0.06 0.08 0.15 0.24 0.25 0.31 0.41 0.47 0.56 0.64 0.66 0.69 0.77 0.85
0.08 0.07 0.08 0.13 0.42 0.49 0.31 0.26 0.16 0.03 0.09 0.12 0.08 0.10 0.13 0.16 0.24 0.29 0.36 0.45 0.52 0.57 0.56 0.58 0.63 0.62 0.63
0.05 0.11 0.25 0.29 0.26 0.30 0.21 0.18 0.10 0.05 0.10 0.29 0.10 0.10 0.08 0.16 0.30 0.24 0.30 0.42 0.55 0.62 0.62 0.58 0.56 0.65 0.69
0.15 0.13 0.06 0.03 0.04 0.29 0.39 0.39 0.26 0.05 0.06 0.22 0.16 0.13 0.11 0.17 0.33 0.39 0.42 0.45 0.44 0.40 0.39 0.40 0.48 0.53 0.63
0.02 0.00 0.01 0.02 0.07 0.17 0.48 0.97 0.49 0.39 0.07 0.48 0.30 0.24 0.58 0.20 0.34 0.44 0.42 0.44 0.40 0.39 0.37 0.38 0.42 0.46 0.48
0.00 0.00 0.01 0.01 0.04 0.08 0.23 0.88 1.14 0.71 0.12 1.00 1.01 0.29 0.67 0.36 0.38 0.47 0.44 0.51 0.59 0.70 0.79 0.64 0.58 0.59 0.71
0.03 0.02 0.02 0.03 0.03 0.04 0.09 0.21 0.46 0.83 0.34 0.59 1.39 0.55 0.91 0.68 0.47 0.48 0.49 0.64 0.93 1.16 1.26 0.79 0.72 0.68 0.73
0.10 0.05 0.04 0.05 0.05 0.07 0.12 0.17 0.22 0.28 0.34 0.43 0.84 0.79 1.00 0.92 0.60 0.43 0.63 0.73 0.85 1.00 1.08 1.14 0.99 0.71 0.62
0.20 0.08 0.04 0.06 0.08 0.17 0.37 0.30 0.42 0.30 0.34 0.44 0.58 0.78 0.81 0.54 0.68 0.62 0.57 0.92 0.91 0.93 0.90 1.07 1.09 0.71 0.35
0.18 0.17 0.10 0.10 0.12 0.21 0.46 0.62 0.70 0.53 0.46 0.41 0.32 0.32 0.43 0.49 0.59 0.49 0.54 0.71 1.02 1.05 0.87 1.05 0.99 0.83 0.49
0.19 0.20 0.29 0.28 0.31 0.30 0.52 0.73 0.72 0.55 0.55 0.46 0.34 0.30 0.30 0.31 0.48 0.73 0.69 0.77 1.00 0.90 0.79 0.85 0.93 1.00 0.65
0.35 0.37 0.41 0.34 0.36 0.46 0.56 0.60 0.57 0.49 0.38 0.27 0.34 0.57 0.65 0.32 0.27 0.61 1.17 0.99 0.75 0.66 0.60 0.62 0.82 0.89 0.58

GFSFLT2_prec_precacc_072.txt.gz
Total_Precipitation_Accumulation
0.67 0.61 0.53 0.45 0.38 0.29 0.23 0.14 0.09 0.13 0.16 0.14 0.12 0.14 0.17 0.22 0.27 0.31 0.38 0.45 0.47 0.49 0.59 0.78 0.89 0.95 1.12
0.47 0.40 0.33 0.24 0.16 0.10 0.09 0.11 0.08 0.05 0.09 0.09 0.10 0.12 0.14 0.16 0.19 0.25 0.33 0.43 0.51 0.61 0.67 0.67 0.63 0.71 0.89
0.24 0.16 0.11 0.06 0.07 0.05 0.04 0.04 0.04 0.07 0.11 0.13 0.13 0.13 0.13 0.15 0.21 0.27 0.35 0.45 0.51 0.55 0.62 0.74 0.83 0.82 0.71
0.21 0.15 0.09 0.07 0.07 0.04 0.04 0.04 0.04 0.03 0.06 0.12 0.15 0.16 0.15 0.18 0.21 0.26 0.28 0.34 0.47 0.54 0.60 0.66 0.69 0.71 0.70
0.34 0.30 0.17 0.05 0.04 0.04 0.07 0.06 0.05 0.04 0.06 0.11 0.11 0.10 0.09 0.16 0.25 0.28 0.31 0.37 0.51 0.71 0.84 0.93 1.02 1.04 1.07
0.41 0.16 0.04 0.02 0.03 0.13 0.27 0.29 0.21 0.03 0.05 0.05 0.05 0.06 0.08 0.15 0.24 0.25 0.31 0.41 0.47 0.56 0.64 0.66 0.69 0.77 0.85
0.08 0.07 0.08 0.13 0.42 0.49 0.31 0.26 0.16 0.03 0.09 0.12 0.08 0.10 0.13 0.16 0.24 0.29 0.36 0.45 0.52 0.57 0.56 0.58 0.63 0.63 0.63
0.05 0.11 0.25 0.29 0.26 0.30 0.21 0.18 0.10 0.05 0.10 0.29 0.10 0.10 0.08 0.16 0.30 0.24 0.30 0.42 0.55 0.62 0.62 0.58 0.56 0.66 0.69
0.15 0.13 0.06 0.03 0.04 0.29 0.39 0.39 0.26 0.05 0.06 0.22 0.16 0.13 0.11 0.17 0.33 0.39 0.42 0.45 0.44 0.40 0.39 0.40 0.48 0.53 0.63
0.02 0.00 0.01 0.02 0.07 0.17 0.48 0.97 0.49 0.39 0.07 0.48 0.30 0.24 0.58 0.20 0.34 0.44 0.42 0.44 0.40 0.39 0.37 0.38 0.42 0.46 0.48
0.00 0.00 0.01 0.01 0.04 0.08 0.23 0.88 1.14 0.71 0.12 1.00 1.01 0.29 0.67 0.36 0.38 0.47 0.44 0.51 0.59 0.70 0.79 0.64 0.58 0.59 0.72
0.03 0.02 0.02 0.03 0.03 0.04 0.09 0.21 0.46 0.83 0.34 0.60 1.40 0.56 0.92 0.68 0.47 0.48 0.49 0.64 0.93 1.16 1.26 0.79 0.72 0.68 0.73
0.10 0.05 0.04 0.05 0.05 0.07 0.12 0.17 0.22 0.28 0.34 0.43 0.84 0.79 1.01 0.93 0.61 0.43 0.63 0.73 0.85 1.00 1.08 1.14 0.99 0.71 0.62
0.20 0.08 0.04 0.06 0.08 0.17 0.37 0.30 0.42 0.30 0.34 0.44 0.58 0.78 0.82 0.54 0.68 0.62 0.58 0.92 0.91 0.93 0.90 1.07 1.09 0.71 0.35
0.18 0.17 0.10 0.10 0.12 0.21 0.47 0.62 0.70 0.53 0.46 0.41 0.32 0.32 0.44 0.49 0.59 0.49 0.54 0.71 1.02 1.05 0.87 1.05 0.99 0.83 0.49
0.19 0.20 0.29 0.28 0.31 0.30 0.52 0.73 0.72 0.55 0.55 0.46 0.34 0.31 0.30 0.31 0.48 0.73 0.69 0.77 1.00 0.90 0.79 0.85 0.94 1.00 0.65
0.35 0.38 0.41 0.35 0.37 0.47 0.56 0.60 0.57 0.49 0.38 0.27 0.34 0.58 0.67 0.33 0.27 0.61 1.17 0.99 0.75 0.66 0.60 0.62 0.82 0.89 0.58

GFSFLT2_prec_precacc_075.txt.gz
Total_Precipitation_Accumulation
0.67 0.61 0.53 0.46 0.41 0.34 0.31 0.24 0.22 0.25 0.25 0.21 0.16 0.16 0.18 0.22 0.27 0.31 0.38 0.45 0.47 0.49 0.59 0.78 0.89 0.95 1.12
0.47 0.40 0.34 0.28 0.26 0.16 0.14 0.16 0.12 0.10 0.13 0.12 0.11 0.12 0.14 0.16 0.19 0.25 0.33 0.43 0.51 0.61 0.67 0.67 0.63 0.71 0.89
0.26 0.20 0.19 0.16 0.11 0.07 0.05 0.06 0.05 0.08 0.11 0.13 0.13 0.13 0.13 0.15 0.21 0.27 0.35 0.45 0.51 0.55 0.62 0.74 0.83 0.82 0.71
0.22 0.17 0.11 0.08 0.07 0.04 0.04 0.04 0.04 0.03 0.06 0.12 0.15 0.16 0.15 0.18 0.21 0.26 0.28 0.34 0.47 0.54 0.60 0.66 0.69 0.71 0.70
0.34 0.30 0.17 0.05 0.04 0.04 0.07 0.06 0.05 0.04 0.06 0.11 0.11 0.10 0.09 0.16 0.25 0.28 0.31 0.37 0.51 0.71 0.84 0.93 1.02 1.04 1.07
0.41 0.16 0.04 0.02 0.03 0.13 0.27 0.29 0.21 0.03 0.05 0.05 0.05 0.06 0.08 0.15 0.24 0.25 0.31 0.41 0.47 0.56 0.64 0.66 0.69 0.77 0.85
0.08 0.07 0.08 0.13 0.42 0.49 0.31 0.26 0.16 0.03 0.09 0.12 0.08 0.10 0.13 0.16 0.24 0.29 0.36 0.45 0.52 0.57 0.56 0.58 0.63 0.63 0.63
0.05 0.11 0.25 0.29 0.26 0.30 0.21 0.18 0.10 0.05 0.10 0.29 0.10 0.10 0.08 0.16 0.30 0.24 0.30 0.42 0.55 0.62 0.62 0.58 0.56 0.66 0.69
0.15 0.13 0.06 0.03 0.04 0.29 0.39 0.39 0.26 0.05 0.06 0.22 0.16 0.13 0.11 0.17 0.33 0.39 0.42 0.45 0.44 0.40 0.39 0.40 0.48 0.53 0.63
0.02 0.00 0.01 0.02 0.07 0.17 0.48 0.97 0.49 0.39 0.07 0.48 0.30 0.24 0.58 0.20 0.34 0.44 0.42 0.44 0.40 0.39 0.37 0.38 0.42 0.46 0.48
0.00 0.00 0.01 0.01 0.04 0.08 0.23 0.88 1.14 0.71 0.12 1.00 1.01 0.29 0.67 0.36 0.38 0.47 0.44 0.51 0.59 0.70 0.79 0.64 0.58 0.59 0.72
0.03 0.02 0.02 0.03 0.03 0.04 0.09 0.21 0.46 0.83 0.34 0.60 1.40 0.56 0.92 0.69 0.47 0.48 0.49 0.64 0.93 1.16 1.26 0.79 0.72 0.68 0.73
0.10 0.05 0.04 0.05 0.05 0.07 0.12 0.17 0.22 0.28 0.34 0.43 0.85 0.80 1.02 0.94 0.61 0.43 0.63 0.73 0.85 1.00 1.08 1.14 0.99 0.71 0.62
0.20 0.08 0.04 0.06 0.08 0.17 0.37 0.30 0.42 0.30 0.34 0.44 0.58 0.79 0.83 0.55 0.69 0.62 0.58 0.92 0.91 0.93 0.90 1.07 1.09 0.71 0.35
0.18 0.17 0.10 0.10 0.12 0.21 0.47 0.62 0.70 0.53 0.46 0.41 0.32 0.32 0.44 0.50 0.60 0.49 0.54 0.71 1.02 1.05 0.87 1.05 0.99 0.83 0.49
0.19 0.20 0.29 0.28 0.31 0.30 0.52 0.74 0.72 0.55 0.55 0.46 0.34 0.31 0.30 0.31 0.48 0.73 0.69 0.77 1.00 0.90 0.79 0.85 0.94 1.00 0.65
0.35 0.38 0.42 0.35 0.37 0.47 0.56 0.60 0.57 0.49 0.38 0.27 0.34 0.59 0.68 0.33 0.27 0.61 1.17 0.99 0.75 0.66 0.60 0.62 0.82 0.89 0.58

GFSFLT2_prec_precacc_081.txt.gz
Total_Precipitation_Accumulation
0.67 0.61 0.53 0.46 0.41 0.35 0.33 0.27 0.28 0.32 0.31 0.27 0.22 0.24 0.27 0.28 0.30 0.34 0.40 0.46 0.48 0.50 0.59 0.78 0.89 0.95 1.12
0.47 0.40 0.34 0.28 0.28 0.21 0.16 0.17 0.14 0.14 0.15 0.14 0.14 0.14 0.15 0.16 0.19 0.25 0.33 0.43 0.51 0.61 0.67 0.67 0.63 0.71 0.89
0.26 0.20 0.19 0.16 0.13 0.07 0.05 0.06 0.05 0.09 0.12 0.14 0.14 0.13 0.13 0.15 0.21 0.27 0.35 0.45 0.51 0.55 0.62 0.74 0.83 0.82 0.71
0.22 0.17 0.11 0.08 0.07 0.04 0.04 0.04 0.04 0.03 0.06 0.12 0.15 0.16 0.15 0.18 0.21 0.26 0.28 0.34 0.47 0.54 0.60 0.66 0.69 0.71 0.70
0.34 0.30 0.17 0.05 0.04 0.04 0.07 0.06 0.05 0.04 0.06 0.11 0.11 0.10 0.09 0.16 0.25 0.28 0.31 0.37 0.51 0.71 0.84 0.93 1.02 1.04 1.07
0.41 0.16 0.04 0.02 0.03 0.13 0.27 0.29 0.21 0.03 0.05 0.05 0.05 0.06 0.08 0.15 0.24 0.25 0.31 0.41 0.47 0.56 0.64 0.66 0.69 0.77 0.85
0.08 0.07 0.08 0.13 0.42 0.49 0.31 0.26 0.16 0.03 0.09 0.12 0.08 0.10 0.13 0.16 0.24 0.29 0.36 0.45 0.52 0.57 0.56 0.58 0.63 0.63 0.63
0.05 0.11 0.25 0.29 0.26 0.30 0.21 0.18 0.10 0.05 0.10 0.29 0.10 0.10 0.08 0.16 0.30 0.24 0.30 0.42 0.55 0.62 0.62 0.58 0.56 0.66 0.69
0.15 0.13 0.06 0.03 0.04 0.29 0.39 0.39 0.26 0.05 0.06 0.22 0.16 0.13 0.11 0.17 0.33 0.39 0.42 0.45 0.44 0.40 0.39 0.40 0.48 0.53 0.63
0.02 0.00 0.01 0.02 0.07 0.17 0.48 0.97 0.49 0.39 0.07 0.48 0.30 0.24 0.58 0.20 0.34 0.44 0.42 0.44 0.40 0.39 0.37 0.38 0.42 0.46 0.48
0.00 0.00 0.01 0.01 0.04 0.08 0.23 0.88 1.14 0.71 0.12 1.01 1.02 0.29 0.67 0.36 0.38 0.47 0.44 0.51 0.59 0.70 0.79 0.64 0.58 0.59 0.72
0.03 0.02 0.02 0.03 0.03 0.04 0.09 0.21 0.46 0.83 0.34 0.60 1.41 0.56 0.93 0.69 0.47 0.48 0.49 0.64 0.93 1.16 1.26 0.79 0.72 0.68 0.73
0.10 0.05 0.04 0.05 0.05 0.07 0.12 0.17 0.22 0.28 0.34 0.43 0.85 0.81 1.04 0.95 0.62 0.44 0.63 0.73 0.85 1.00 1.08 1.14 0.99 0.71 0.62
0.20 0.08 0.04 0.06 0.08 0.17 0.37 0.30 0.42 0.30 0.34 0.44 0.58 0.80 0.85 0.56 0.69 0.62 0.58 0.92 0.91 0.93 0.90 1.07 1.09 0.71 0.35
0.18 0.17 0.10 0.10 0.12 0.21 0.47 0.62 0.71 0.53 0.46 0.41 0.32 0.32 0.44 0.50 0.61 0.49 0.54 0.71 1.02 1.05 0.87 1.05 0.99 0.83 0.49
0.19 0.20 0.30 0.29 0.31 0.31 0.52 0.74 0.73 0.55 0.55 0.46 0.34 0.31 0.30 0.31 0.48 0.73 0.69 0.77 1.00 0.90 0.79 0.85 0.94 1.00 0.65
0.35 0.38 0.42 0.35 0.37 0.47 0.56 0.60 0.58 0.49 0.38 0.27 0.34 0.59 0.69 0.33 0.27 0.61 1.17 0.99 0.75 0.66 0.60 0.62 0.82 0.89 0.58

GFSFLT2_prec_precacc_084.txt.gz
Total_Precipitation_Accumulation
0.67 0.61 0.53 0.46 0.41 0.35 0.33 0.27 0.28 0.32 0.31 0.27 0.22 0.24 0.27 0.28 0.30 0.34 0.40 0.47 0.49 0.51 0.60 0.78 0.90 0.96 1.13
0.47 0.40 0.34 0.28 0.28 0.21 0.16 0.17 0.14 0.14 0.15 0.14 0.14 0.14 0.15 0.16 0.19 0.25 0.33 0.43 0.51 0.61 0.67 0.67 0.63 0.71 0.89
0.26 0.20 0.19 0.16 0.13 0.07 0.05 0.06 0.05 0.09 0.12 0.14 0.14 0.13 0.13 0.15 0.21 0.27 0.35 0.45 0.51 0.55 0.62 0.74 0.83 0.82 0.71
0.22 0.17 0.11 0.08 0.07 0.04 0.04 0.04 0.04 0.03 0.06 0.12 0.15 0.16 0.15 0.18 0.21 0.26 0.28 0.34 0.47 0.54 0.60 0.66 0.69 0.71 0.70
0.34 0.30 0.17 0.05 0.04 0.04 0.07 0.06 0.05 0.04 0.06 0.11 0.11 0.10 0.09 0.16 0.25 0.28 0.31 0.37 0.51 0.71 0.84 0.93 1.02 1.04 1.07
0.41 0.16 0.04 0.02 0.03 0.13 0.27 0.29 0.21 0.03 0.05 0.05 0.05 0.06 0.08 0.15 0.24 0.25 0.31 0.41 0.47 0.56 0.64 0.66 0.69 0.77 0.85
0.08 0.07 0.08 0.13 0.42 0.49 0.31 0.26 0.16 0.03 0.09 0.12 0.08 0.10 0.13 0.16 0.24 0.29 0.36 0.45 0.52 0.57 0.56 0.58 0.63 0.63 0.63
0.05 0.11 0.25 0.29 0.26 0.30 0.21 0.18 0.10 0.05 0.10 0.29 0.10 0.10 0.08 0.16 0.30 0.24 0.30 0.42 0.55 0.62 0.62 0.58 0.56 0.66 0.69
0.15 0.13 0.06 0.03 0.04 0.29 0.39 0.39 0.26 0.05 0.06 0.22 0.16 0.13 0.11 0.17 0.33 0.39 0.42 0.45 0.44 0.40 0.39 0.40 0.48 0.53 0.63
0.02 0.00 0.01 0.02 0.07 0.17 0.48 0.97 0.49 0.39 0.07 0.48 0.30 0.24 0.58 0.20 0.34 0.44 0.42 0.44 0.40 0.39 0.37 0.38 0.42 0.46 0.48
0.00 0.00 0.01 0.01 0.04 0.08 0.23 0.88 1.14 0.71 0.12 1.01 1.02 0.29 0.67 0.36 0.38 0.47 0.44 0.51 0.59 0.70 0.79 0.64 0.58 0.59 0.72
0.03 0.02 0.02 0.03 0.03 0.04 0.09 0.21 0.46 0.83 0.34 0.60 1.42 0.57 0.93 0.69 0.48 0.48 0.49 0.64 0.93 1.16 1.26 0.79 0.72 0.68 0.73
0.10 0.05 0.04 0.05 0.05 0.07 0.12 0.17 0.22 0.28 0.35 0.43 0.86 0.81 1.04 0.95 0.62 0.44 0.63 0.73 0.85 1.00 1.08 1.14 0.99 0.71 0.62
0.20 0.08 0.04 0.06 0.08 0.17 0.37 0.30 0.42 0.30 0.34 0.44 0.58 0.80 0.85 0.56 0.70 0.62 0.58 0.92 0.91 0.93 0.90 1.07 1.09 0.71 0.35
0.18 0.17 0.10 0.10 0.12 0.21 0.47 0.63 0.71 0.53 0.46 0.41 0.32 0.32 0.44 0.50 0.61 0.49 0.54 0.71 1.02 1.05 0.87 1.05 0.99 0.83 0.49
0.19 0.20 0.30 0.29 0.32 0.31 0.52 0.75 0.73 0.56 0.55 0.46 0.34 0.31 0.30 0.31 0.48 0.73 0.69 0.77 1.00 0.90 0.80 0.86 0.94 1.00 0.65
0.35 0.38 0.42 0.35 0.37 0.47 0.56 0.60 0.58 0.49 0.39 0.27 0.34 0.60 0.69 0.33 0.27 0.61 1.17 0.99 0.75 0.66 0.60 0.62 0.82 0.89 0.58

GFSFLT2_prec_precacc_087.txt.gz
Total_Precipitation_Accumulation
0.67 0.61 0.53 0.46 0.41 0.35 0.33 0.27 0.28 0.32 0.31 0.27 0.22 0.24 0.27 0.28 0.30 0.34 0.40 0.47 0.49 0.51 0.60 0.79 0.90 0.96 1.13
0.47 0.40 0.34 0.28 0.28 0.21 0.16 0.17 0.14 0.14 0.15 0.14 0.14 0.14 0.15 0.16 0.19 0.25 0.33 0.43 0.51 0.61 0.67 0.67 0.63 0.71 0.89
0.26 0.20 0.19 0.16 0.13 0.07 0.05 0.06 0.05 0.09 0.12 0.14 0.14 0.13 0.13 0.15 0.21 0.27 0.35 0.45 0.51 0.55 0.62 0.74 0.83 0.82 0.71
0.22 0.17 0.11 0.08 0.07 0.04 0.04 0.04 0.04 0.03 0.06 0.12 0.15 0.16 0.15 0.18 0.21 0.26 0.28 0.34 0.47 0.54 0.60 0.66 0.69 0.71 0.70
0.34 0.30 0.17 0.05 0.04 0.04 0.07 0.06 0.05 0.04 0.06 0.11 0.11 0.10 0.09 0.16 0.25 0.28 0.31 0.37 0.51 0.71 0.84 0.93 1.02 1.04 1.07
0.41 0.16 0.04 0.02 0.03 0.13 0.27 0.29 0.21 0.03 0.05 0.05 0.05 0.06 0.08 0.15 0.24 0.25 0.31 0.41 0.47 0.56 0.64 0.66 0.69 0.77 0.85
0.08 0.07 0.08 0.13 0.42 0.49 0.31 0.26 0.16 0.03 0.09 0.12 0.08 0.10 0.13 0.16 0.24 0.29 0.36 0.45 0.52 0.57 0.56 0.58 0.63 0.63 0.63
0.05 0.11 0.25 0.29 0.26 0.30 0.21 0.18 0.10 0.05 0.10 0.29 0.10 0.10 0.08 0.16 0.30 0.24 0.30 0.42 0.55 0.62 0.62 0.58 0.56 0.66 0.69
0.15 0.13 0.06 0.03 0.04 0.29 0.39 0.39 0.26 0.05 0.06 0.22 0.16 0.13 0.11 0.17 0.33 0.39 0.42 0.45 0.44 0.40 0.39 0.40 0.48 0.53 0.63
0.02 0.00 0.01 0.02 0.07 0.17 0.48 0.97 0.49 0.39 0.07 0.48 0.30 0.24 0.58 0.20 0.34 0.44 0.42 0.44 0.40 0.39 0.37 0.38 0.42 0.46 0.48
0.00 0.00 0.01 0.01 0.04 0.08 0.23 0.88 1.14 0.71 0.12 1.01 1.02 0.29 0.67 0.36 0.38 0.47 0.44 0.51 0.59 0.70 0.79 0.64 0.58 0.59 0.72
0.03 0.02 0.02 0.03 0.03 0.04 0.09 0.21 0.46 0.83 0.34 0.60 1.42 0.57 0.93 0.69 0.48 0.48 0.49 0.64 0.93 1.16 1.26 0.79 0.72 0.68 0.73
0.10 0.05 0.04 0.05 0.05 0.07 0.12 0.17 0.22 0.28 0.35 0.43 0.86 0.82 1.05 0.96 0.62 0.44 0.63 0.73 0.85 1.00 1.08 1.14 0.99 0.71 0.62
0.20 0.08 0.04 0.06 0.08 0.17 0.37 0.30 0.42 0.30 0.34 0.44 0.58 0.80 0.85 0.56 0.70 0.63 0.58 0.92 0.91 0.93 0.90 1.07 1.09 0.71 0.35
0.18 0.17 0.10 0.10 0.12 0.21 0.47 0.63 0.72 0.53 0.46 0.41 0.32 0.32 0.44 0.50 0.61 0.49 0.54 0.71 1.02 1.05 0.87 1.05 0.99 0.83 0.49
0.19 0.20 0.30 0.29 0.32 0.31 0.52 0.75 0.74 0.56 0.56 0.46 0.34 0.31 0.30 0.31 0.48 0.73 0.69 0.77 1.00 0.90 0.80 0.86 0.94 1.00 0.65
0.35 0.38 0.42 0.35 0.37 0.47 0.56 0.60 0.58 0.49 0.39 0.27 0.35 0.60 0.70 0.34 0.27 0.61 1.17 0.99 0.75 0.66 0.60 0.62 0.82 0.89 0.58

GFSFLT2_prec_precacc_090.txt.gz
Total_Precipitation_Accumulation
0.67 0.61 0.53 0.46 0.41 0.35 0.33 0.27 0.28 0.32 0.31 0.27 0.22 0.24 0.27 0.28 0.30 0.34 0.40 0.47 0.49 0.51 0.60 0.79 0.90 0.96 1.13
0.47 0.40 0.34 0.28 0.28 0.21 0.16 0.17 0.14 0.14 0.15 0.14 0.14 0.14 0.15 0.16 0.19 0.25 0.33 0.43 0.51 0.61 0.67 0.67 0.63 0.71 0.89
0.26 0.20 0.19 0.16 0.13 0.07 0.05 0.06 0.05 0.09 0.12 0.14 0.14 0.13 0.13 0.15 0.21 0.27 0.35 0.45 0.51 0.55 0.62 0.74 0.83 0.82 0.71
0.22 0.17 0.11 0.08 0.07 0.04 0.04 0.04 0.04 0.03 0.06 0.12 0.15 0.16 0.15 0.18 0.21 0.26 0.28 0.34 0.47 0.54 0.60 0.66 0.69 0.71 0.70
0.34 0.30 0.17 0.05 0.04 0.04 0.07 0.06 0.05 0.04 0.06 0.11 0.11 0.10 0.09 0.16 0.25 0.28 0.31 0.37 0.51 0.71 0.84 0.93 1.02 1.04 1.07
0.41 0.16 0.04 0.02 0.03 0.13 0.27 0.29 0.21 0.03 0.05 0.05 0.05 0.06 0.08 0.15 0.24 0.25 0.31 0.41 0.47 0.56 0.64 0.66 0.69 0.77 0.85
0.08 0.07 0.08 0.13 0.42 0.49 0.31 0.26 0.16 0.03 0.09 0.12 0.08 0.10 0.13 0.16 0.24 0.29 0.36 0.45 0.52 0.57 0.56 0.58 0.63 0.63 0.63
0.05 0.11 0.25 0.29 0.26 0.30 0.21 0.18 0.10 0.05 0.10 0.29 0.10 0.10 0.08 0.16 0.30 0.24 0.30 0.42 0.55 0.62 0.62 0.58 0.56 0.66 0.69
0.15 0.13 0.06 0.03 0.04 0.29 0.39 0.39 0.26 0.05 0.06 0.22 0.16 0.13 0.11 0.17 0.33 0.39 0.42 0.45 0.44 0.40 0.39 0.40 0.48 0.53 0.63
0.02 0.00 0.01 0.02 0.07 0.17 0.48 0.97 0.49 0.39 0.07 0.48 0.30 0.24 0.58 0.20 0.34 0.44 0.42 0.44 0.40 0.39 0.37 0.38 0.42 0.46 0.48
0.00 0.00 0.01 0.01 0.04 0.08 0.23 0.88 1.14 0.71 0.12 1.01 1.02 0.29 0.67 0.36 0.38 0.47 0.44 0.51 0.59 0.70 0.79 0.64 0.58 0.59 0.72
0.03 0.02 0.02 0.03 0.03 0.04 0.09 0.21 0.46 0.83 0.34 0.60 1.42 0.57 0.93 0.70 0.48 0.48 0.49 0.64 0.93 1.16 1.26 0.79 0.72 0.68 0.73
0.10 0.05 0.04 0.05 0.05 0.07 0.12 0.17 0.22 0.28 0.35 0.43 0.86 0.82 1.05 0.96 0.62 0.44 0.63 0.73 0.85 1.00 1.08 1.14 0.99 0.71 0.62
0.20 0.08 0.04 0.06 0.08 0.17 0.37 0.30 0.42 0.30 0.34 0.44 0.58 0.80 0.85 0.56 0.70 0.63 0.58 0.92 0.91 0.93 0.90 1.07 1.09 0.71 0.35
0.18 0.17 0.10 0.10 0.12 0.21 0.47 0.63 0.72 0.53 0.46 0.41 0.32 0.32 0.44 0.50 0.61 0.49 0.54 0.71 1.02 1.05 0.87 1.05 0.99 0.83 0.49
0.19 0.20 0.30 0.29 0.32 0.31 0.52 0.75 0.74 0.56 0.56 0.46 0.34 0.31 0.31 0.31 0.48 0.73 0.69 0.77 1.00 0.90 0.80 0.86 0.94 1.00 0.65
0.35 0.38 0.42 0.35 0.37 0.47 0.56 0.60 0.58 0.50 0.39 0.27 0.35 0.61 0.70 0.34 0.27 0.61 1.17 0.99 0.75 0.66 0.60 0.62 0.82 0.89 0.58

GFSFLT2_prec_precacc_093.txt.gz
Total_Precipitation_Accumulation
0.67 0.61 0.53 0.46 0.41 0.35 0.33 0.27 0.28 0.33 0.31 0.27 0.22 0.24 0.27 0.28 0.30 0.34 0.40 0.47 0.49 0.51 0.60 0.79 0.90 0.96 1.14
0.47 0.40 0.34 0.28 0.28 0.21 0.16 0.17 0.14 0.14 0.15 0.14 0.14 0.14 0.15 0.16 0.19 0.25 0.33 0.43 0.51 0.61 0.67 0.67 0.63 0.71 0.89
0.26 0.20 0.19 0.16 0.13 0.07 0.05 0.06 0.05 0.09 0.12 0.14 0.14 0.13 0.13 0.15 0.21 0.27 0.35 0.45 0.51 0.55 0.62 0.74 0.83 0.82 0.71
0.22 0.17 0.11 0.08 0.07 0.04 0.04 0.04 0.04 0.03 0.06 0.12 0.15 0.16 0.15 0.18 0.21 0.26 0.28 0.34 0.47 0.54 0.60 0.66 0.69 0.71 0.70
0.34 0.30 0.17 0.05 0.04 0.04 0.07 0.06 0.05 0.04 0.06 0.11 0.11 0.10 0.09 0.16 0.25 0.28 0.31 0.37 0.51 0.71 0.84 0.93 1.02 1.04 1.07
0.41 0.16 0.04 0.02 0.03 0.13 0.27 0.29 0.21 0.03 0.05 0.05 0.05 0.06 0.08 0.15 0.24 0.25 0.31 0.41 0.47 0.56 0.64 0.66 0.69 0.77 0.85
0.08 0.07 0.08 0.13 0.42 0.49 0.31 0.26 0.16 0.03 0.09 0.12 0.08 0.10 0.13 0.16 0.24 0.29 0.36 0.45 0.52 0.57 0.56 0.58 0.63 0.63 0.63
0.05 0.11 0.25 0.29 0.26 0.30 0.21 0.18 0.10 0.05 0.10 0.29 0.10 0.10 0.08 0.16 0.30 0.24 0.30 0.42 0.55 0.62 0.62 0.58 0.56 0.66 0.69
0.15 0.13 0.06 0.03 0.04 0.29 0.39 0.39 0.26 0.05 0.06 0.22 0.16 0.13 0.11 0.17 0.33 0.39 0.42 0.45 0.44 0.40 0.39 0.40 0.48 0.53 0.63
0.02 0.00 0.01 0.02 0.07 0.17 0.48 0.97 0.49 0.39 0.07 0.48 0.30 0.24 0.58 0.20 0.34 0.44 0.42 0.44 0.40 0.39 0.37 0.38 0.42 0.46 0.48
0.00 0.00 0.01 0.01 0.04 0.08 0.23 0.88 1.14 0.71 0.12 1.01 1.02 0.29 0.67 0.36 0.38 0.47 0.44 0.51 0.59 0.70 0.79 0.64 0.58 0.59 0.72
0.03 0.02 0.02 0.03 0.03 0.04 0.09 0.21 0.46 0.83 0.34 0.60 1.42 0.57 0.93 0.70 0.48 0.48 0.49 0.64 0.93 1.16 1.26 0.79 0.72 0.68 0.74
0.10 0.05 0.04 0.05 0.05 0.07 0.12 0.17 0.22 0.28 0.35 0.43 0.86 0.82 1.05 0.96 0.62 0.44 0.63 0.73 0.85 1.00 1.08 1.14 0.99 0.71 0.62
0.20 0.08 0.04 0.06 0.08 0.17 0.37 0.30 0.42 0.30 0.34 0.44 0.58 0.80 0.85 0.56 0.70 0.63 0.58 0.92 0.91 0.93 0.90 1.07 1.09 0.71 0.35
0.18 0.17 0.10 0.10 0.12 0.21 0.47 0.63 0.72 0.53 0.46 0.41 0.32 0.32 0.44 0.50 0.62 0.49 0.54 0.71 1.02 1.05 0.87 1.05 0.99 0.83 0.49
0.19 0.20 0.30 0.29 0.32 0.31 0.52 0.75 0.74 0.56 0.56 0.46 0.34 0.31 0.31 0.31 0.48 0.73 0.69 0.77 1.00 0.90 0.80 0.86 0.94 1.00 0.65
0.35 0.38 0.42 0.35 0.37 0.47 0.56 0.60 0.58 0.50 0.39 0.27 0.35 0.61 0.71 0.34 0.27 0.61 1.17 0.99 0.75 0.66 0.60 0.62 0.82 0.89 0.58

GFSFLT2_prec_precacc_096.txt.gz
Total_Precipitation_Accumulation
0.67 0.61 0.53 0.46 0.41 0.35 0.33 0.27 0.28 0.33 0.31 0.27 0.22 0.24 0.27 0.29 0.31 0.34 0.41 0.48 0.49 0.51 0.60 0.79 0.90 0.96 1.14
0.47 0.40 0.34 0.28 0.28 0.21 0.16 0.17 0.14 0.14 0.15 0.14 0.14 0.14 0.15 0.16 0.19 0.25 0.33 0.43 0.51 0.61 0.67 0.67 0.63 0.71 0.89
0.26 0.20 0.19 0.16 0.13 0.07 0.05 0.06 0.05 0.09 0.12 0.14 0.14 0.13 0.13 0.16 0.21 0.27 0.35 0.45 0.51 0.55 0.62 0.74 0.83 0.82 0.71
0.22 0.17 0.11 0.08 0.07 0.04 0.04 0.04 0.04 0.03 0.06 0.12 0.15 0.16 0.15 0.18 0.21 0.26 0.28 0.34 0.47 0.54 0.60 0.66 0.69 0.71 0.70
0.34 0.30 0.17 0.05 0.04 0.04 0.07 0.06 0.05 0.04 0.06 0.11 0.11 0.10 0.09 0.16 0.25 0.28 0.31 0.37 0.51 0.71 0.84 0.93 1.02 1.04 1.07
0.41 0.16 0.04 0.02 0.03 0.13 0.27 0.29 0.21 0.03 0.05 0.05 0.05 0.06 0.08 0.15 0.24 0.25 0.31 0.41 0.47 0.56 0.64 0.66 0.69 0.77 0.85
0.08 0.07 0.08 0.13 0.42 0.49 0.31 0.26 0.16 0.03 0.09 0.12 0.08 0.10 0.13 0.16 0.24 0.29 0.36 0.45 0.52 0.57 0.56 0.58 0.63 0.63 0.63
0.05 0.11 0.25 0.29 0.26 0.30 0.21 0.18 0.10 0.05 0.10 0.29 0.10 0.10 0.08 0.16 0.30 0.24 0.30 0.42 0.55 0.62 0.62 0.58 0.56 0.66 0.69
0.15 0.13 0.06 0.03 0.04 0.29 0.39 0.39 0.26 0.05 0.06 0.22 0.16 0.13 0.11 0.17 0.33 0.39 0.42 0.45 0.44 0.40 0.39 0.40 0.48 0.53 0.63
0.02 0.00 0.01 0.02 0.07 0.17 0.48 0.97 0.49 0.39 0.07 0.48 0.30 0.24 0.58 0.20 0.34 0.44 0.42 0.44 0.40 0.39 0.37 0.38 0.42 0.46 0.48
0.00 0.00 0.01 0.01 0.04 0.08 0.23 0.88 1.14 0.71 0.12 1.01 1.02 0.29 0.67 0.36 0.38 0.47 0.44 0.51 0.59 0.70 0.79 0.64 0.58 0.59 0.72
0.03 0.02 0.02 0.03 0.03 0.04 0.09 0.21 0.46 0.83 0.34 0.60 1.42 0.57 0.93 0.70 0.48 0.48 0.49 0.64 0.93 1.16 1.26 0.79 0.72 0.68 0.74
0.10 0.05 0.04 0.05 0.05 0.07 0.12 0.17 0.22 0.28 0.35 0.43 0.86 0.82 1.05 0.96 0.62 0.44 0.63 0.73 0.85 1.00 1.08 1.14 0.99 0.71 0.62
0.20 0.08 0.04 0.06 0.08 0.17 0.37 0.30 0.42 0.30 0.34 0.44 0.58 0.80 0.85 0.56 0.70 0.63 0.58 0.92 0.91 0.93 0.90 1.07 1.09 0.71 0.35
0.18 0.17 0.10 0.10 0.12 0.21 0.47 0.63 0.72 0.53 0.46 0.41 0.32 0.32 0.44 0.50 0.62 0.49 0.54 0.71 1.02 1.05 0.87 1.05 0.99 0.83 0.49
0.19 0.20 0.30 0.29 0.32 0.31 0.52 0.75 0.74 0.56 0.56 0.46 0.34 0.31 0.31 0.31 0.48 0.73 0.69 0.77 1.00 0.90 0.80 0.86 0.94 1.00 0.65
0.35 0.38 0.42 0.35 0.37 0.47 0.56 0.60 0.58 0.50 0.39 0.27 0.35 0.61 0.71 0.34 0.27 0.61 1.17 0.99 0.75 0.66 0.60 0.62 0.82 0.89 0.58

GFSFLT2_prec_precacc_099.txt.gz
Total_Precipitation_Accumulation
0.67 0.61 0.53 0.46 0.41 0.35 0.33 0.27 0.28 0.33 0.31 0.27 0.22 0.24 0.27 0.29 0.31 0.36 0.42 0.49 0.50 0.52 0.60 0.79 0.90 0.96 1.14
0.48 0.41 0.34 0.28 0.28 0.21 0.16 0.17 0.14 0.14 0.15 0.14 0.14 0.14 0.15 0.16 0.19 0.25 0.33 0.43 0.51 0.61 0.67 0.67 0.63 0.71 0.89
0.26 0.20 0.19 0.16 0.13 0.07 0.05 0.06 0.05 0.09 0.12 0.14 0.14 0.13 0.13 0.16 0.21 0.27 0.35 0.45 0.51 0.55 0.62 0.74 0.83 0.82 0.71
0.22 0.17 0.11 0.08 0.07 0.04 0.04 0.04 0.04 0.03 0.06 0.12 0.15 0.16 0.15 0.18 0.21 0.26 0.28 0.34 0.47 0.54 0.60 0.66 0.69 0.71 0.70
0.34 0.30 0.17 0.05 0.04 0.04 0.07 0.06 0.05 0.04 0.06 0.11 0.11 0.10 0.09 0.16 0.25 0.28 0.31 0.37 0.51 0.71 0.84 0.93 1.02 1.04 1.07
0.41 0.16 0.04 0.02 0.03 0.13 0.27 0.29 0.21 0.03 0.05 0.05 0.05 0.06 0.08 0.15 0.24 0.25 0.31 0.41 0.47 0.56 0.64 0.66 0.69 0.77 0.85
0.08 0.07 0.08 0.13 0.42 0.49 0.31 0.26 0.16 0.03 0.09 0.12 0.08 0.10 0.13 0.16 0.24 0.29 0.36 0.45 0.52 0.57 0.56 0.58 0.63 0.63 0.63
0.05 0.11 0.25 0.29 0.26 0.30 0.21 0.18 0.10 0.05 0.10 0.29 0.10 0.10 0.08 0.16 0.30 0.24 0.30 0.42 0.55 0.62 0.62 0.58 0.56 0.66 0.69
0.15 0.13 0.06 0.03 0.04 0.29 0.39 0.39 0.26 0.05 0.06 0.22 0.16 0.13 0.11 0.17 0.33 0.39 0.42 0.45 0.44 0.40 0.39 0.40 0.48 0.53 0.63
0.02 0.00 0.01 0.02 0.07 0.17 0.48 0.97 0.49 0.39 0.07 0.48 0.30 0.24 0.58 0.20 0.34 0.44 0.42 0.44 0.40 0.39 0.37 0.38 0.42 0.46 0.48
0.00 0.00 0.01 0.01 0.04 0.08 0.23 0.88 1.14 0.71 0.12 1.01 1.02 0.29 0.67 0.36 0.38 0.47 0.44 0.51 0.59 0.70 0.79 0.64 0.58 0.59 0.72
0.03 0.02 0.02 0.03 0.03 0.04 0.09 0.21 0.46 0.83 0.34 0.60 1.42 0.57 0.93 0.70 0.48 0.48 0.49 0.64 0.93 1.16 1.26 0.79 0.72 0.68 0.74
0.10 0.05 0.04 0.05 0.05 0.07 0.12 0.17 0.22 0.28 0.35 0.43 0.86 0.82 1.05 0.96 0.62 0.44 0.63 0.73 0.85 1.00 1.08 1.14 0.99 0.71 0.62
0.20 0.08 0.04 0.06 0.08 0.17 0.37 0.30 0.42 0.30 0.34 0.44 0.58 0.80 0.85 0.56 0.70 0.63 0.58 0.92 0.91 0.93 0.90 1.07 1.09 0.71 0.35
0.18 0.17 0.10 0.10 0.12 0.21 0.47 0.63 0.72 0.53 0.46 0.41 0.32 0.32 0.44 0.50 0.62 0.49 0.54 0.71 1.02 1.05 0.87 1.05 0.99 0.83 0.49
0.19 0.20 0.30 0.29 0.32 0.31 0.52 0.75 0.74 0.56 0.56 0.46 0.34 0.31 0.31 0.31 0.48 0.73 0.69 0.77 1.00 0.90 0.80 0.86 0.94 1.00 0.65
0.35 0.38 0.42 0.35 0.37 0.47 0.56 0.60 0.58 0.50 0.39 0.27 0.35 0.61 0.71 0.34 0.27 0.61 1.17 0.99 0.75 0.66 0.60 0.62 0.82 0.89 0.58

GFSFLT2_prec_precacc_102.txt.gz
Total_Precipitation_Accumulation
0.67 0.62 0.53 0.46 0.41 0.35 0.33 0.27 0.28 0.33 0.31 0.27 0.22 0.24 0.27 0.30 0.32 0.38 0.45 0.53 0.55 0.58 0.64 0.81 0.91 0.97 1.14
0.48 0.42 0.34 0.29 0.28 0.21 0.16 0.17 0.14 0.14 0.15 0.14 0.14 0.14 0.15 0.16 0.19 0.25 0.33 0.43 0.52 0.61 0.67 0.67 0.63 0.71 0.89
0.27 0.20 0.20 0.16 0.13 0.07 0.05 0.06 0.05 0.09 0.12 0.14 0.14 0.13 0.13 0.16 0.21 0.27 0.35 0.45 0.51 0.55 0.62 0.74 0.83 0.82 0.71
0.23 0.18 0.12 0.08 0.07 0.04 0.04 0.04 0.04 0.03 0.06 0.12 0.15 0.16 0.15 0.18 0.21 0.26 0.28 0.34 0.47 0.54 0.60 0.66 0.69 0.71 0.70
0.34 0.30 0.17 0.05 0.04 0.04 0.07 0.06 0.05 0.04 0.06 0.11 0.11 0.10 0.09 0.16 0.25 0.28 0.31 0.37 0.51 0.71 0.84 0.93 1.02 1.04 1.07
0.41 0.16 0.04 0.02 0.03 0.13 0.27 0.29 0.21 0.03 0.05 0.05 0.05 0.06 0.08 0.15 0.24 0.25 0.31 0.41 0.47 0.56 0.64 0.66 0.69 0.77 0.85
0.08 0.07 0.08 0.13 0.42 0.49 0.31 0.26 0.16 0.03 0.09 0.12 0.08 0.10 0.13 0.16 0.24 0.29 0.36 0.45 0.52 0.57 0.56 0.58 0.63 0.63 0.63
0.05 0.11 0.25 0.29 0.26 0.30 0.21 0.18 0.10 0.05 0.10 0.29 0.10 0.10 0.08 0.16 0.30 0.24 0.30 0.42 0.55 0.62 0.62 0.58 0.56 0.66 0.69
0.15 0.13 0.06 0.03 0.04 0.29 0.39 0.39 0.26 0.05 0.06 0.22 0.16 0.13 0.11 0.17 0.33 0.39 0.42 0.45 0.44 0.40 0.39 0.40 0.48 0.53 0.63
0.02 0.00 0.01 0.02 0.07 0.17 0.48 0.97 0.49 0.39 0.07 0.48 0.30 0.24 0.58 0.20 0.34 0.44 0.42 0.44 0.40 0.39 0.37 0.38 0.42 0.46 0.48
0.00 0.00 0.01 0.01 0.04 0.08 0.23 0.88 1.14 0.71 0.12 1.01 1.02 0.29 0.67 0.36 0.38 0.47 0.44 0.51 0.59 0.70 0.79 0.64 0.58 0.59 0.72
0.03 0.02 0.02 0.03 0.03 0.04 0.09 0.21 0.46 0.83 0.34 0.60 1.42 0.57 0.93 0.70 0.48 0.48 0.49 0.64 0.93 1.16 1.26 0.79 0.72 0.68 0.74
0.10 0.05 0.04 0.05 0.05 0.07 0.12 0.17 0.22 0.28 0.35 0.43 0.86 0.82 1.05 0.96 0.62 0.44 0.63 0.73 0.85 1.00 1.08 1.14 0.99 0.71 0.62
0.20 0.08 0.04 0.06 0.08 0.17 0.37 0.30 0.42 0.30 0.34 0.44 0.58 0.80 0.85 0.56 0.70 0.63 0.58 0.92 0.91 0.93 0.90 1.07 1.09 0.71 0.35
0.18 0.17 0.10 0.10 0.12 0.21 0.47 0.63 0.72 0.53 0.46 0.41 0.32 0.32 0.44 0.50 0.62 0.49 0.54 0.71 1.02 1.05 0.87 1.05 0.99 0.83 0.49
0.19 0.20 0.30 0.29 0.32 0.31 0.52 0.75 0.74 0.56 0.56 0.46 0.34 0.31 0.31 0.31 0.48 0.73 0.69 0.77 1.00 0.90 0.80 0.86 0.94 1.00 0.65
0.35 0.38 0.42 0.35 0.37 0.47 0.56 0.60 0.58 0.50 0.39 0.27 0.35 0.61 0.71 0.34 0.27 0.61 1.17 0.99 0.75 0.66 0.60 0.62 0.82 0.89 0.58

GFSFLT2_prec_precacc_105.txt.gz
Total_Precipitation_Accumulation
0.68 0.62 0.53 0.46 0.41 0.35 0.33 0.27 0.28 0.33 0.31 0.27 0.22 0.24 0.27 0.30 0.34 0.41 0.47 0.61 0.68 0.66 0.70 0.84 0.92 0.97 1.14
0.48 0.42 0.34 0.29 0.29 0.22 0.16 0.17 0.14 0.14 0.15 0.14 0.14 0.14 0.15 0.16 0.19 0.27 0.35 0.48 0.59 0.68 0.74 0.71 0.65 0.72 0.89
0.27 0.20 0.20 0.16 0.13 0.08 0.05 0.06 0.05 0.09 0.12 0.14 0.14 0.13 0.13 0.16 0.21 0.27 0.35 0.45 0.52 0.56 0.63 0.74 0.83 0.82 0.71
0.23 0.18 0.12 0.08 0.07 0.05 0.04 0.04 0.04 0.03 0.06 0.12 0.15 0.16 0.15 0.18 0.21 0.26 0.28 0.34 0.47 0.54 0.60 0.66 0.69 0.71 0.70
0.35 0.31 0.18 0.06 0.04 0.04 0.07 0.06 0.05 0.04 0.06 0.11 0.11 0.10 0.09 0.16 0.25 0.28 0.31 0.37 0.51 0.71 0.84 0.93 1.02 1.04 1.07
0.42 0.16 0.04 0.03 0.03 0.13 0.27 0.29 0.21 0.03 0.05 0.05 0.05 0.06 0.08 0.15 0.24 0.25 0.31 0.41 0.47 0.56 0.64 0.66 0.69 0.77 0.85
0.08 0.07 0.08 0.13 0.42 0.49 0.31 0.26 0.16 0.03 0.09 0.12 0.08 0.10 0.13 0.16 0.24 0.29 0.36 0.45 0.52 0.57 0.56 0.58 0.63 0.63 0.63
0.05 0.11 0.25 0.29 0.26 0.30 0.21 0.18 0.10 0.05 0.10 0.29 0.10 0.10 0.08 0.16 0.30 0.24 0.30 0.42 0.55 0.62 0.62 0.58 0.56 0.66 0.69
0.15 0.13 0.06 0.03 0.04 0.29 0.39 0.39 0.26 0.05 0.06 0.22 0.16 0.13 0.11 0.17 0.33 0.39 0.42 0.45 0.44 0.40 0.39 0.40 0.48 0.53 0.63
0.02 0.00 0.01 0.02 0.07 0.17 0.48 0.97 0.49 0.39 0.07 0.48 0.30 0.24 0.58 0.20 0.34 0.44 0.42 0.44 0.40 0.39 0.37 0.38 0.42 0.46 0.48
0.00 0.00 0.01 0.01 0.04 0.08 0.23 0.88 1.15 0.71 0.12 1.01 1.02 0.29 0.67 0.36 0.38 0.47 0.44 0.51 0.59 0.70 0.79 0.64 0.58 0.59 0.72
0.03 0.02 0.02 0.03 0.03 0.04 0.09 0.21 0.46 0.83 0.34 0.60 1.42 0.57 0.93 0.70 0.48 0.48 0.49 0.64 0.93 1.16 1.26 0.79 0.72 0.68 0.74
0.10 0.05 0.04 0.05 0.05 0.07 0.12 0.17 0.22 0.28 0.35 0.43 0.86 0.82 1.05 0.96 0.62 0.44 0.63 0.73 0.85 1.00 1.08 1.14 0.99 0.71 0.62
0.20 0.08 0.04 0.06 0.08 0.17 0.37 0.30 0.42 0.30 0.34 0.44 0.58 0.80 0.85 0.56 0.70 0.63 0.58 0.92 0.91 0.93 0.90 1.07 1.09 0.71 0.35
0.18 0.17 0.10 0.10 0.12 0.21 0.47 0.63 0.72 0.53 0.46 0.41 0.32 0.32 0.44 0.50 0.62 0.49 0.54 0.71 1.02 1.05 0.87 1.05 0.99 0.83 0.49
0.19 0.20 0.30 0.29 0.32 0.31 0.52 0.75 0.74 0.56 0.56 0.46 0.34 0.31 0.31 0.31 0.48 0.73 0.69 0.77 1.00 0.90 0.80 0.86 0.94 1.00 0.65
0.35 0.38 0.42 0.35 0.37 0.47 0.56 0.60 0.58 0.50 0.39 0.27 0.35 0.61 0.71 0.34 0.27 0.61 1.17 0.99 0.75 0.66 0.60 0.62 0.82 0.89 0.58

GFSFLT2_prec_precacc_108.txt.gz
Total_Precipitation_Accumulation
0.68 0.62 0.53 0.46 0.41 0.35 0.33 0.27 0.29 0.33 0.31 0.27 0.22 0.24 0.27 0.31 0.36 0.45 0.49 0.65 0.81 0.75 0.73 0.86 0.92 0.97 1.14
0.48 0.42 0.34 0.29 0.29 0.22 0.16 0.17 0.14 0.15 0.15 0.14 0.14 0.14 0.15 0.16 0.20 0.31 0.44 0.55 0.70 0.78 0.77 0.74 0.67 0.72 0.89
0.27 0.20 0.20 0.16 0.13 0.08 0.05 0.06 0.05 0.10 0.12 0.14 0.14 0.13 0.13 0.16 0.21 0.28 0.38 0.50 0.59 0.64 0.70 0.82 0.89 0.86 0.72
0.23 0.18 0.12 0.08 0.07 0.05 0.04 0.04 0.04 0.03 0.06 0.12 0.15 0.16 0.15 0.18 0.21 0.26 0.28 0.34 0.47 0.56 0.62 0.68 0.72 0.72 0.70
0.35 0.31 0.18 0.06 0.04 0.05 0.07 0.06 0.05 0.04 0.06 0.11 0.11 0.10 0.09 0.16 0.25 0.28 0.31 0.37 0.51 0.71 0.84 0.93 1.02 1.04 1.07
0.42 0.17 0.04 0.03 0.04 0.13 0.27 0.29 0.21 0.03 0.05 0.05 0.05 0.06 0.08 0.15 0.24 0.25 0.31 0.41 0.47 0.56 0.64 0.66 0.69 0.77 0.85
0.09 0.07 0.08 0.13 0.42 0.49 0.31 0.27 0.16 0.03 0.09 0.13 0.08 0.10 0.13 0.16 0.24 0.29 0.36 0.45 0.52 0.57 0.56 0.58 0.63 0.63 0.63
0.05 0.11 0.25 0.29 0.26 0.30 0.21 0.18 0.10 0.05 0.11 0.29 0.11 0.11 0.08 0.16 0.30 0.24 0.30 0.42 0.55 0.62 0.62 0.58 0.56 0.66 0.69
0.15 0.13 0.07 0.03 0.04 0.29 0.39 0.39 0.26 0.05 0.06 0.22 0.16 0.13 0.11 0.17 0.33 0.39 0.42 0.45 0.44 0.40 0.39 0.40 0.48 0.53 0.63
0.02 0.00 0.01 0.02 0.07 0.17 0.48 0.97 0.49 0.39 0.07 0.48 0.30 0.24 0.58 0.20 0.34 0.44 0.42 0.44 0.40 0.39 0.37 0.38 0.42 0.46 0.48
0.00 0.00 0.01 0.01 0.04 0.08 0.23 0.88 1.15 0.71 0.12 1.01 1.02 0.29 0.67 0.36 0.38 0.47 0.44 0.51 0.59 0.70 0.79 0.64 0.58 0.59 0.72
0.03 0.02 0.02 0.03 0.03 0.04 0.09 0.21 0.46 0.83 0.34 0.60 1.42 0.57 0.93 0.70 0.48 0.48 0.49 0.64 0.93 1.16 1.26 0.79 0.72 0.68 0.74
0.10 0.05 0.04 0.05 0.05 0.07 0.12 0.17 0.22 0.28 0.35 0.43 0.86 0.82 1.05 0.96 0.62 0.44 0.63 0.73 0.85 1.00 1.08 1.14 0.99 0.71 0.62
0.20 0.08 0.04 0.06 0.08 0.17 0.37 0.30 0.42 0.30 0.34 0.44 0.58 0.80 0.85 0.56 0.70 0.63 0.58 0.92 0.91 0.93 0.90 1.07 1.09 0.71 0.35
0.18 0.17 0.10 0.10 0.12 0.21 0.47 0.63 0.72 0.53 0.46 0.41 0.32 0.32 0.44 0.50 0.62 0.49 0.54 0.71 1.02 1.05 0.87 1.05 0.99 0.83 0.49
0.19 0.20 0.30 0.29 0.32 0.31 0.52 0.75 0.74 0.56 0.56 0.46 0.34 0.31 0.31 0.31 0.48 0.73 0.69 0.77 1.00 0.90 0.80 0.86 0.94 1.00 0.65
0.35 0.38 0.42 0.35 0.37 0.47 0.56 0.60 0.58 0.50 0.39 0.27 0.35 0.61 0.71 0.34 0.27 0.61 1.17 0.99 0.75 0.66 0.60 0.62 0.82 0.89 0.58

GFSFLT2_prec_precacc_111.txt.gz
Total_Precipitation_Accumulation
0.68 0.62 0.53 0.46 0.41 0.35 0.33 0.27 0.29 0.34 0.32 0.27 0.22 0.24 0.27 0.31 0.36 0.47 0.52 0.65 0.84 0.81 0.78 0.94 1.13 1.30 1.27
0.48 0.42 0.34 0.29 0.29 0.22 0.16 0.17 0.15 0.16 0.16 0.14 0.14 0.14 0.15 0.16 0.21 0.34 0.50 0.60 0.77 0.90 0.85 0.81 0.72 0.76 0.93
0.27 0.20 0.20 0.16 0.13 0.08 0.05 0.06 0.05 0.11 0.13 0.14 0.14 0.13 0.13 0.16 0.21 0.30 0.45 0.63 0.71 0.74 0.76 0.88 0.96 0.89 0.75
0.23 0.18 0.12 0.08 0.07 0.05 0.04 0.04 0.04 0.03 0.06 0.12 0.15 0.16 0.15 0.18 0.21 0.26 0.31 0.40 0.59 0.68 0.75 0.74 0.79 0.78 0.75
0.35 0.31 0.18 0.06 0.04 0.05 0.07 0.06 0.05 0.04 0.06 0.11 0.11 0.10 0.09 0.16 0.25 0.28 0.31 0.37 0.52 0.73 0.86 0.97 1.03 1.06 1.09
0.42 0.17 0.04 0.03 0.04 0.14 0.27 0.29 0.21 0.03 0.05 0.05 0.05 0.06 0.08 0.15 0.24 0.25 0.31 0.41 0.47 0.56 0.64 0.66 0.70 0.77 0.85
0.09 0.07 0.08 0.13 0.42 0.49 0.31 0.27 0.16 0.03 0.09 0.13 0.08 0.10 0.13 0.16 0.24 0.29 0.36 0.45 0.52 0.57 0.56 0.58 0.63 0.63 0.63
0.05 0.11 0.25 0.29 0.26 0.30 0.22 0.18 0.10 0.05 0.11 0.29 0.11 0.11 0.08 0.16 0.30 0.24 0.30 0.42 0.55 0.62 0.62 0.58 0.56 0.66 0.69
0.15 0.13 0.07 0.03 0.04 0.29 0.39 0.39 0.26 0.05 0.06 0.22 0.16 0.13 0.11 0.17 0.33 0.39 0.42 0.45 0.44 0.40 0.39 0.40 0.48 0.53 0.63
0.02 0.00 0.01 0.02 0.07 0.17 0.48 0.97 0.49 0.39 0.07 0.48 0.30 0.24 0.58 0.20 0.34 0.44 0.42 0.44 0.40 0.39 0.37 0.38 0.42 0.46 0.48
0.00 0.00 0.01 0.01 0.04 0.08 0.23 0.88 1.15 0.71 0.12 1.01 1.02 0.29 0.67 0.36 0.38 0.47 0.44 0.51 0.59 0.70 0.79 0.64 0.58 0.59 0.72
0.03 0.02 0.02 0.03 0.03 0.04 0.09 0.21 0.46 0.83 0.34 0.60 1.42 0.57 0.93 0.70 0.48 0.48 0.49 0.64 0.93 1.16 1.26 0.79 0.72 0.68 0.74
0.10 0.05 0.04 0.05 0.05 0.07 0.12 0.17 0.22 0.28 0.35 0.43 0.86 0.82 1.05 0.96 0.62 0.44 0.63 0.73 0.85 1.00 1.08 1.14 0.99 0.71 0.62
0.20 0.08 0.04 0.06 0.08 0.17 0.37 0.30 0.42 0.30 0.34 0.44 0.58 0.80 0.85 0.56 0.70 0.63 0.58 0.92 0.91 0.93 0.90 1.07 1.09 0.71 0.35
0.18 0.17 0.10 0.10 0.12 0.21 0.47 0.63 0.72 0.53 0.46 0.41 0.32 0.32 0.44 0.50 0.62 0.49 0.54 0.71 1.02 1.05 0.87 1.05 0.99 0.83 0.49
0.19 0.20 0.30 0.29 0.32 0.31 0.52 0.75 0.74 0.56 0.56 0.46 0.34 0.31 0.31 0.31 0.48 0.73 0.69 0.77 1.00 0.90 0.80 0.86 0.94 1.00 0.65
0.35 0.38 0.42 0.35 0.37 0.47 0.56 0.60 0.58 0.50 0.39 0.27 0.35 0.61 0.71 0.34 0.27 0.61 1.17 0.99 0.75 0.66 0.60 0.62 0.82 0.89 0.58

GFSFLT2_prec_precacc_114.txt.gz
Total_Precipitation_Accumulation
0.68 0.62 0.53 0.46 0.41 0.35 0.33 0.27 0.29 0.35 0.32 0.27 0.22 0.24 0.27 0.31 0.36 0.47 0.53 0.66 0.84 0.82 0.80 0.98 1.24 1.72 1.76
0.48 0.42 0.34 0.29 0.29 0.22 0.16 0.17 0.15 0.18 0.16 0.14 0.14 0.14 0.15 0.16 0.21 0.35 0.52 0.64 0.78 0.93 0.94 0.93 0.89 1.23 1.82
0.27 0.20 0.20 0.16 0.13 0.08 0.05 0.06 0.05 0.11 0.13 0.14 0.14 0.13 0.13 0.16 0.21 0.31 0.47 0.70 0.82 0.80 0.89 1.01 1.15 1.04 1.02
0.23 0.18 0.12 0.08 0.07 0.05 0.04 0.04 0.04 0.03 0.07 0.13 0.15 0.16 0.15 0.18 0.21 0.26 0.32 0.43 0.69 0.77 0.85 0.82 0.91 0.90 0.82
0.35 0.31 0.18 0.06 0.04 0.05 0.07 0.06 0.05 0.04 0.06 0.11 0.11 0.10 0.09 0.16 0.25 0.28 0.31 0.39 0.56 0.82 0.96 1.15 1.14 1.20 1.21
0.42 0.17 0.04 0.03 0.04 0.14 0.28 0.29 0.21 0.03 0.05 0.05 0.05 0.06 0.08 0.15 0.24 0.25 0.31 0.41 0.47 0.59 0.78 0.75 0.84 0.81 0.88
0.09 0.07 0.08 0.13 0.42 0.49 0.31 0.27 0.16 0.03 0.09 0.13 0.08 0.10 0.13 0.16 0.24 0.29 0.36 0.45 0.52 0.57 0.58 0.61 0.63 0.63 0.64
0.05 0.11 0.25 0.29 0.26 0.30 0.22 0.18 0.10 0.05 0.11 0.29 0.11 0.11 0.08 0.16 0.30 0.24 0.30 0.42 0.55 0.62 0.62 0.58 0.56 0.66 0.69
0.15 0.13 0.07 0.04 0.05 0.29 0.39 0.39 0.26 0.05 0.06 0.22 0.16 0.13 0.11 0.17 0.33 0.39 0.42 0.45 0.44 0.40 0.39 0.40 0.48 0.53 0.63
0.02 0.00 0.01 0.02 0.07 0.17 0.48 0.97 0.49 0.39 0.07 0.48 0.30 0.24 0.58 0.20 0.34 0.44 0.42 0.44 0.40 0.39 0.37 0.38 0.42 0.46 0.48
0.00 0.00 0.01 0.01 0.04 0.08 0.23 0.88 1.15 0.71 0.12 1.01 1.02 0.29 0.67 0.36 0.38 0.47 0.44 0.51 0.59 0.70 0.79 0.64 0.58 0.59 0.72
0.03 0.02 0.02 0.03 0.03 0.04 0.09 0.21 0.46 0.83 0.34 0.60 1.42 0.57 0.93 0.70 0.48 0.48 0.49 0.64 0.93 1.16 1.26 0.79 0.72 0.68 0.74
0.10 0.05 0.04 0.05 0.05 0.07 0.12 0.17 0.22 0.28 0.35 0.43 0.86 0.82 1.05 0.96 0.62 0.44 0.63 0.73 0.85 1.00 1.08 1.14 0.99 0.71 0.62
0.20 0.08 0.04 0.06 0.08 0.17 0.37 0.30 0.42 0.30 0.34 0.44 0.58 0.80 0.85 0.56 0.70 0.63 0.58 0.92 0.91 0.93 0.90 1.07 1.09 0.71 0.35
0.18 0.17 0.10 0.10 0.12 0.21 0.47 0.63 0.72 0.53 0.46 0.41 0.32 0.32 0.44 0.50 0.62 0.49 0.54 0.71 1.02 1.05 0.87 1.05 0.99 0.83 0.49
0.19 0.20 0.30 0.29 0.32 0.31 0.52 0.75 0.74 0.56 0.56 0.46 0.34 0.31 0.31 0.31 0.48 0.73 0.69 0.77 1.00 0.90 0.80 0.86 0.94 1.00 0.65
0.35 0.38 0.42 0.35 0.37 0.47 0.56 0.60 0.58 0.50 0.39 0.27 0.35 0.61 0.71 0.34 0.27 0.61 1.17 0.99 0.75 0.66 0.60 0.62 0.82 0.89 0.58

GFSFLT2_prec_precacc_117.txt.gz
Total_Precipitation_Accumulation
0.68 0.62 0.53 0.46 0.41 0.35 0.33 0.27 0.29 0.35 0.32 0.27 0.22 0.24 0.27 0.31 0.36 0.47 0.53 0.67 0.85 0.82 0.81 0.99 1.25 1.77 1.90
0.48 0.42 0.34 0.29 0.29 0.22 0.16 0.17 0.15 0.18 0.16 0.14 0.14 0.14 0.15 0.16 0.21 0.35 0.52 0.65 0.80 0.93 0.94 0.94 0.94 1.36 2.19
0.27 0.20 0.20 0.16 0.13 0.08 0.05 0.06 0.05 0.11 0.13 0.14 0.14 0.13 0.13 0.16 0.21 0.31 0.47 0.74 0.91 0.83 0.91 1.06 1.20 1.14 1.69
0.23 0.18 0.12 0.08 0.07 0.05 0.04 0.04 0.04 0.03 0.07 0.13 0.15 0.16 0.15 0.18 0.21 0.26 0.32 0.46 0.82 0.87 0.94 0.96 1.27 1.13 1.22
0.35 0.31 0.18 0.06 0.04 0.05 0.07 0.06 0.05 0.04 0.06 0.11 0.11 0.10 0.09 0.16 0.25 0.28 0.31 0.40 0.61 0.90 1.03 1.33 1.29 1.38 1.43
0.42 0.17 0.04 0.03 0.04 0.14 0.28 0.29 0.21 0.03 0.05 0.05 0.05 0.06 0.08 0.15 0.24 0.25 0.31 0.41 0.48 0.63 0.82 0.83 0.99 0.96 1.09
0.09 0.07 0.08 0.13 0.42 0.49 0.31 0.27 0.16 0.03 0.09 0.13 0.08 0.10 0.13 0.16 0.24 0.29 0.36 0.45 0.52 0.58 0.61 0.69 0.75 0.75 0.70
0.05 0.11 0.25 0.29 0.26 0.30 0.22 0.18 0.10 0.05 0.11 0.29 0.11 0.11 0.08 0.16 0.30 0.24 0.30 0.42 0.55 0.62 0.62 0.58 0.57 0.67 0.69
0.15 0.13 0.07 0.04 0.05 0.29 0.39 0.39 0.26 0.05 0.06 0.22 0.16 0.13 0.11 0.17 0.33 0.39 0.42 0.45 0.44 0.40 0.39 0.40 0.48 0.53 0.63
0.02 0.00 0.01 0.02 0.07 0.17 0.48 0.97 0.49 0.39 0.07 0.48 0.30 0.24 0.58 0.20 0.34 0.44 0.42 0.44 0.40 0.39 0.37 0.38 0.42 0.46 0.48
0.00 0.00 0.01 0.01 0.04 0.08 0.23 0.88 1.15 0.71 0.12 1.01 1.02 0.29 0.67 0.36 0.38 0.47 0.44 0.51 0.59 0.70 0.79 0.64 0.58 0.59 0.72
0.03 0.02 0.02 0.03 0.03 0.04 0.09 0.21 0.46 0.83 0.34 0.60 1.42 0.57 0.93 0.70 0.48 0.48 0.49 0.64 0.93 1.16 1.26 0.79 0.72 0.68 0.74
0.10 0.05 0.04 0.05 0.05 0.07 0.12 0.17 0.22 0.28 0.35 0.43 0.86 0.82 1.05 0.96 0.62 0.44 0.63 0.73 0.85 1.00 1.08 1.14 0.99 0.71 0.62
0.20 0.08 0.04 0.06 0.08 0.17 0.37 0.30 0.42 0.30 0.34 0.44 0.58 0.80 0.85 0.56 0.70 0.63 0.58 0.92 0.91 0.93 0.90 1.07 1.09 0.71 0.35
0.18 0.17 0.10 0.10 0.12 0.21 0.47 0.63 0.72 0.53 0.46 0.41 0.32 0.32 0.44 0.50 0.62 0.49 0.54 0.71 1.02 1.05 0.87 1.05 0.99 0.83 0.49
0.19 0.20 0.30 0.29 0.32 0.31 0.52 0.75 0.74 0.56 0.56 0.46 0.34 0.31 0.31 0.31 0.48 0.73 0.69 0.77 1.00 0.90 0.80 0.86 0.94 1.00 0.65
0.35 0.38 0.42 0.35 0.37 0.47 0.56 0.60 0.58 0.50 0.39 0.27 0.35 0.61 0.71 0.34 0.27 0.61 1.17 0.99 0.75 0.66 0.60 0.62 0.82 0.89 0.58

GFSFLT2_prec_precacc_120.txt.gz
Total_Precipitation_Accumulation
0.68 0.62 0.53 0.46 0.41 0.35 0.33 0.27 0.29 0.35 0.32 0.27 0.22 0.24 0.27 0.31 0.36 0.47 0.53 0.67 0.86 0.82 0.81 0.99 1.26 1.77 1.92
0.48 0.42 0.34 0.29 0.29 0.22 0.16 0.17 0.15 0.18 0.16 0.15 0.14 0.14 0.15 0.16 0.21 0.35 0.52 0.66 0.81 0.94 0.94 0.94 0.94 1.37 2.25
0.27 0.20 0.20 0.16 0.13 0.08 0.05 0.06 0.05 0.11 0.13 0.14 0.14 0.13 0.13 0.16 0.21 0.31 0.47 0.75 0.95 0.86 0.92 1.06 1.20 1.15 1.82
0.23 0.18 0.12 0.08 0.07 0.05 0.04 0.04 0.04 0.03 0.07 0.13 0.15 0.16 0.15 0.18 0.21 0.26 0.32 0.47 0.87 0.97 1.04 0.98 1.27 1.14 1.31
0.35 0.31 0.18 0.06 0.04 0.05 0.07 0.06 0.05 0.04 0.06 0.11 0.11 0.10 0.09 0.16 0.25 0.28 0.31 0.40 0.65 1.00 1.17 1.43 1.39 1.44 1.49
0.42 0.17 0.04 0.03 0.04 0.14 0.28 0.29 0.21 0.03 0.05 0.05 0.05 0.06 0.08 0.15 0.24 0.25 0.31 0.42 0.49 0.67 0.85 0.89 1.16 1.24 1.19
0.09 0.07 0.08 0.13 0.42 0.49 0.31 0.27 0.16 0.03 0.09 0.13 0.08 0.10 0.13 0.16 0.24 0.29 0.36 0.45 0.53 0.59 0.67 0.73 0.82 0.90 0.93
0.05 0.11 0.25 0.29 0.26 0.30 0.22 0.18 0.10 0.05 0.11 0.29 0.11 0.11 0.08 0.16 0.30 0.24 0.30 0.42 0.55 0.62 0.64 0.69 0.69 0.74 0.75
0.15 0.13 0.07 0.04 0.05 0.29 0.39 0.39 0.26 0.05 0.06 0.22 0.16 0.13 0.11 0.17 0.33 0.39 0.42 0.45 0.44 0.40 0.39 0.40 0.52 0.59 0.65
0.02 0.00 0.01 0.02 0.07 0.17 0.48 0.97 0.49 0.39 0.07 0.48 0.30 0.24 0.58 0.20 0.34 0.44 0.42 0.44 0.40 0.39 0.37 0.38 0.42 0.46 0.48
0.00 0.00 0.01 0.01 0.04 0.08 0.23 0.88 1.15 0.71 0.12 1.01 1.02 0.29 0.67 0.36 0.38 0.47 0.44 0.51 0.59 0.70 0.79 0.64 0.58 0.59 0.72
0.03 0.02 0.02 0.03 0.03 0.04 0.09 0.21 0.46 0.83 0.34 0.60 1.42 0.57 0.93 0.70 0.48 0.48 0.49 0.64 0.93 1.16 1.26 0.79 0.72 0.68 0.74
0.10 0.05 0.04 0.05 0.05 0.07 0.12 0.17 0.22 0.28 0.35 0.43 0.86 0.82 1.05 0.96 0.62 0.44 0.63 0.73 0.85 1.00 1.08 1.14 0.99 0.71 0.62
0.20 0.08 0.04 0.06 0.08 0.17 0.37 0.30 0.42 0.30 0.34 0.44 0.58 0.80 0.85 0.56 0.70 0.63 0.58 0.92 0.91 0.93 0.90 1.07 1.09 0.71 0.35
0.18 0.17 0.10 0.10 0.12 0.21 0.47 0.63 0.72 0.53 0.46 0.41 0.32 0.32 0.44 0.50 0.62 0.49 0.54 0.71 1.02 1.05 0.87 1.05 0.99 0.83 0.49
0.19 0.20 0.30 0.29 0.32 0.31 0.52 0.75 0.74 0.56 0.56 0.46 0.34 0.31 0.31 0.31 0.48 0.73 0.69 0.77 1.00 0.90 0.80 0.86 0.94 1.00 0.65
0.35 0.38 0.42 0.35 0.37 0.47 0.56 0.60 0.58 0.50 0.39 0.27 0.35 0.61 0.71 0.34 0.27 0.61 1.17 0.99 0.75 0.66 0.60 0.62 0.82 0.89 0.58

GFSFLT2_prec_precacc_123.txt.gz
Total_Precipitation_Accumulation
0.68 0.62 0.53 0.46 0.41 0.35 0.33 0.27 0.29 0.35 0.32 0.28 0.22 0.24 0.27 0.31 0.36 0.47 0.53 0.67 0.86 0.83 0.82 1.00 1.26 1.77 1.93
0.48 0.42 0.34 0.29 0.29 0.22 0.16 0.17 0.15 0.18 0.16 0.15 0.14 0.14 0.15 0.16 0.21 0.35 0.52 0.66 0.81 0.94 0.94 0.94 0.94 1.37 2.25
0.27 0.20 0.20 0.16 0.13 0.08 0.05 0.06 0.05 0.11 0.13 0.14 0.14 0.13 0.13 0.16 0.21 0.31 0.47 0.75 0.95 0.87 0.95 1.07 1.20 1.16 1.84
0.23 0.18 0.12 0.08 0.07 0.05 0.04 0.04 0.04 0.03 0.07 0.13 0.15 0.16 0.15 0.18 0.21 0.26 0.32 0.47 0.89 1.03 1.11 0.99 1.28 1.15 1.34
0.35 0.31 0.18 0.06 0.04 0.05 0.07 0.06 0.05 0.04 0.06 0.11 0.11 0.10 0.09 0.16 0.25 0.28 0.31 0.40 0.66 1.08 1.30 1.49 1.40 1.45 1.50
0.42 0.17 0.04 0.03 0.04 0.14 0.28 0.29 0.21 0.03 0.05 0.05 0.05 0.06 0.08 0.15 0.24 0.25 0.31 0.42 0.50 0.72 0.89 0.94 1.21 1.30 1.26
0.09 0.07 0.08 0.13 0.42 0.49 0.31 0.27 0.16 0.03 0.09 0.13 0.08 0.10 0.13 0.16 0.24 0.29 0.36 0.45 0.53 0.60 0.69 0.75 0.89 1.07 0.97
0.05 0.11 0.25 0.29 0.26 0.30 0.22 0.18 0.10 0.05 0.11 0.29 0.11 0.11 0.08 0.16 0.30 0.24 0.30 0.42 0.55 0.62 0.65 0.74 0.78 0.92 0.83
0.15 0.13 0.07 0.04 0.05 0.29 0.39 0.39 0.26 0.05 0.06 0.22 0.16 0.13 0.11 0.17 0.33 0.39 0.42 0.45 0.44 0.40 0.39 0.41 0.60 0.70 0.75
0.02 0.00 0.01 0.02 0.07 0.17 0.48 0.97 0.49 0.39 0.07 0.48 0.30 0.24 0.58 0.20 0.34 0.44 0.42 0.44 0.40 0.39 0.37 0.38 0.42 0.46 0.49
0.00 0.00 0.01 0.01 0.04 0.08 0.23 0.88 1.15 0.71 0.12 1.01 1.02 0.29 0.67 0.36 0.38 0.47 0.44 0.51 0.59 0.70 0.79 0.64 0.58 0.59 0.72
0.03 0.02 0.02 0.03 0.03 0.04 0.09 0.21 0.46 0.83 0.34 0.60 1.42 0.57 0.93 0.70 0.48 0.48 0.49 0.64 0.93 1.16 1.26 0.79 0.72 0.68 0.74
0.10 0.05 0.04 0.05 0.05 0.07 0.12 0.17 0.22 0.28 0.35 0.43 0.86 0.82 1.05 0.96 0.62 0.44 0.63 0.73 0.85 1.00 1.08 1.14 0.99 0.71 0.62
0.20 0.08 0.04 0.06 0.08 0.17 0.37 0.30 0.42 0.30 0.34 0.44 0.58 0.80 0.85 0.56 0.70 0.63 0.58 0.92 0.91 0.93 0.90 1.07 1.09 0.71 0.35
0.18 0.17 0.10 0.10 0.12 0.21 0.47 0.63 0.72 0.53 0.46 0.41 0.32 0.32 0.44 0.50 0.62 0.49 0.54 0.71 1.02 1.05 0.87 1.05 0.99 0.83 0.49
0.19 0.20 0.30 0.29 0.32 0.31 0.52 0.75 0.74 0.56 0.56 0.46 0.34 0.31 0.31 0.31 0.48 0.73 0.69 0.77 1.00 0.90 0.80 0.86 0.94 1.00 0.65
0.35 0.38 0.42 0.35 0.37 0.47 0.56 0.60 0.58 0.50 0.39 0.27 0.35 0.61 0.71 0.34 0.27 0.61 1.17 0.99 0.75 0.66 0.60 0.62 0.82 0.89 0.58

GFSFLT2_prec_precacc_126.txt.gz
Total_Precipitation_Accumulation
0.77 0.69 0.55 0.46 0.41 0.35 0.33 0.27 0.29 0.35 0.32 0.28 0.23 0.24 0.27 0.31 0.36 0.47 0.53 0.67 0.86 0.83 0.82 1.01 1.27 1.78 1.93
0.53 0.44 0.34 0.29 0.29 0.22 0.16 0.17 0.15 0.18 0.16 0.15 0.14 0.14 0.15 0.16 0.21 0.35 0.52 0.66 0.81 0.94 0.95 0.95 0.94 1.37 2.25
0.27 0.20 0.20 0.16 0.13 0.08 0.05 0.06 0.05 0.11 0.13 0.14 0.14 0.13 0.13 0.16 0.21 0.31 0.47 0.75 0.96 0.89 0.98 1.07 1.20 1.17 1.84
0.23 0.18 0.12 0.08 0.07 0.05 0.04 0.04 0.04 0.03 0.07 0.13 0.15 0.16 0.15 0.18 0.21 0.26 0.32 0.47 0.89 1.04 1.12 1.00 1.29 1.15 1.34
0.35 0.31 0.18 0.06 0.04 0.05 0.07 0.06 0.05 0.04 0.06 0.11 0.11 0.10 0.09 0.16 0.25 0.28 0.31 0.40 0.67 1.11 1.32 1.51 1.40 1.46 1.50
0.42 0.17 0.04 0.03 0.04 0.14 0.28 0.29 0.21 0.03 0.05 0.05 0.05 0.06 0.08 0.15 0.24 0.25 0.31 0.42 0.50 0.75 0.93 0.98 1.23 1.32 1.29
0.09 0.07 0.08 0.13 0.42 0.49 0.31 0.27 0.16 0.03 0.09 0.13 0.08 0.10 0.13 0.16 0.24 0.29 0.36 0.45 0.53 0.62 0.72 0.78 0.95 1.08 0.97
0.05 0.11 0.25 0.29 0.26 0.30 0.22 0.18 0.10 0.05 0.11 0.29 0.11 0.11 0.08 0.16 0.30 0.24 0.30 0.42 0.55 0.62 0.68 0.78 0.90 1.00 0.85
0.15 0.13 0.07 0.04 0.05 0.29 0.39 0.39 0.26 0.05 0.06 0.22 0.16 0.13 0.11 0.17 0.33 0.39 0.42 0.45 0.44 0.40 0.40 0.46 0.68 0.81 0.80
0.02 0.00 0.01 0.02 0.07 0.17 0.48 0.97 0.49 0.39 0.07 0.48 0.30 0.24 0.58 0.20 0.34 0.44 0.42 0.44 0.40 0.39 0.37 0.38 0.45 0.49 0.52
0.00 0.00 0.01 0.01 0.04 0.08 0.23 0.88 1.15 0.71 0.12 1.01 1.02 0.29 0.67 0.36 0.38 0.47 0.44 0.51 0.59 0.70 0.79 0.64 0.58 0.59 0.72
0.03 0.02 0.02 0.03 0.03 0.04 0.09 0.21 0.46 0.83 0.34 0.60 1.42 0.57 0.93 0.70 0.48 0.48 0.49 0.64 0.93 1.16 1.26 0.79 0.72 0.68 0.74
0.10 0.05 0.04 0.05 0.05 0.07 0.12 0.17 0.22 0.28 0.35 0.43 0.86 0.82 1.05 0.96 0.62 0.44 0.63 0.73 0.85 1.00 1.08 1.14 0.99 0.71 0.62
0.20 0.08 0.04 0.06 0.08 0.17 0.37 0.30 0.42 0.30 0.34 0.44 0.58 0.80 0.85 0.56 0.70 0.63 0.58 0.92 0.91 0.93 0.90 1.07 1.09 0.71 0.35
0.18 0.17 0.10 0.10 0.12 0.21 0.47 0.63 0.72 0.53 0.46 0.41 0.32 0.32 0.44 0.50 0.62 0.49 0.54 0.71 1.02 1.05 0.87 1.05 0.99 0.83 0.49
0.19 0.20 0.30 0.29 0.32 0.31 0.52 0.75 0.74 0.56 0.56 0.46 0.34 0.31 0.31 0.31 0.48 0.73 0.69 0.77 1.00 0.90 0.80 0.86 0.94 1.00 0.65
0.35 0.38 0.42 0.35 0.37 0.47 0.56 0.60 0.58 0.50 0.39 0.27 0.35 0.61 0.71 0.34 0.27 0.61 1.17 0.99 0.75 0.66 0.60 0.62 0.82 0.89 0.58

GFSFLT2_prec_precacc_129.txt.gz
Total_Precipitation_Accumulation
0.80 0.74 0.60 0.48 0.43 0.35 0.33 0.27 0.29 0.35 0.32 0.28 0.23 0.24 0.27 0.31 0.36 0.47 0.53 0.67 0.86 0.83 0.83 1.01 1.28 1.78 1.93
0.62 0.52 0.40 0.32 0.30 0.22 0.16 0.17 0.15 0.18 0.16 0.15 0.14 0.14 0.15 0.16 0.21 0.35 0.52 0.66 0.81 0.94 0.95 0.95 0.95 1.37 2.25
0.39 0.31 0.26 0.20 0.13 0.08 0.05 0.06 0.05 0.11 0.13 0.14 0.14 0.13 0.13 0.16 0.21 0.31 0.47 0.75 0.96 0.89 0.99 1.08 1.20 1.17 1.84
0.40 0.27 0.17 0.10 0.07 0.05 0.04 0.04 0.04 0.03 0.07 0.13 0.15 0.16 0.15 0.18 0.21 0.26 0.32 0.47 0.89 1.05 1.12 1.01 1.29 1.15 1.34
0.46 0.37 0.20 0.06 0.04 0.05 0.07 0.06 0.05 0.04 0.06 0.11 0.11 0.10 0.09 0.16 0.25 0.28 0.31 0.40 0.67 1.12 1.33 1.51 1.40 1.46 1.50
0.55 0.24 0.06 0.03 0.04 0.14 0.28 0.29 0.21 0.03 0.05 0.05 0.05 0.06 0.08 0.15 0.24 0.25 0.31 0.42 0.50 0.75 0.94 1.00 1.24 1.32 1.29
0.16 0.12 0.12 0.14 0.42 0.49 0.31 0.27 0.16 0.03 0.09 0.13 0.08 0.10 0.13 0.16 0.24 0.29 0.36 0.45 0.53 0.62 0.73 0.81 0.95 1.08 0.97
0.09 0.14 0.27 0.30 0.26 0.30 0.22 0.18 0.10 0.05 0.11 0.29 0.11 0.11 0.08 0.16 0.30 0.24 0.30 0.42 0.55 0.62 0.69 0.80 0.93 1.01 0.85
0.26 0.20 0.11 0.05 0.05 0.29 0.39 0.39 0.26 0.05 0.06 0.22 0.16 0.13 0.11 0.17 0.33 0.39 0.42 0.45 0.44 0.40 0.40 0.53 0.76 0.86 0.82
0.08 0.03 0.01 0.02 0.07 0.17 0.48 0.97 0.49 0.39 0.07 0.48 0.30 0.24 0.58 0.20 0.34 0.44 0.42 0.44 0.40 0.39 0.37 0.41 0.53 0.53 0.57
0.04 0.01 0.01 0.01 0.04 0.08 0.23 0.88 1.15 0.71 0.12 1.01 1.02 0.29 0.67 0.36 0.38 0.47 0.44 0.51 0.59 0.70 0.79 0.64 0.59 0.62 0.74
0.07 0.03 0.02 0.03 0.03 0.04 0.09 0.21 0.46 0.83 0.34 0.60 1.42 0.57 0.93 0.70 0.48 0.48 0.49 0.64 0.93 1.16 1.26 0.79 0.72 0.69 0.75
0.14 0.07 0.04 0.05 0.05 0.07 0.12 0.17 0.22 0.28 0.35 0.43 0.86 0.82 1.05 0.96 0.62 0.44 0.63 0.73 0.85 1.00 1.08 1.14 0.99 0.71 0.62
0.26 0.11 0.04 0.06 0.08 0.17 0.37 0.30 0.42 0.30 0.34 0.44 0.58 0.80 0.85 0.56 0.70 0.63 0.58 0.92 0.91 0.93 0.90 1.07 1.09 0.71 0.35
0.29 0.24 0.11 0.10 0.12 0.21 0.47 0.63 0.72 0.53 0.46 0.41 0.32 0.32 0.44 0.50 0.62 0.49 0.54 0.71 1.02 1.05 0.87 1.05 0.99 0.83 0.49
0.26 0.23 0.31 0.30 0.32 0.31 0.53 0.75 0.74 0.56 0.56 0.46 0.34 0.31 0.31 0.31 0.48 0.73 0.69 0.77 1.00 0.90 0.80 0.86 0.94 1.00 0.65
0.45 0.44 0.45 0.36 0.38 0.48 0.57 0.60 0.58 0.50 0.39 0.27 0.35 0.61 0.71 0.34 0.27 0.61 1.17 0.99 0.75 0.66 0.60 0.62 0.82 0.89 0.58

GFSFLT2_prec_precacc_132.txt.gz
Total_Precipitation_Accumulation
0.81 0.74 0.62 0.51 0.47 0.41 0.38 0.28 0.29 0.35 0.32 0.28 0.23 0.24 0.27 0.31 0.36 0.47 0.53 0.67 0.86 0.83 0.83 1.02 1.29 1.79 1.94
0.63 0.57 0.48 0.41 0.41 0.34 0.21 0.18 0.15 0.18 0.16 0.15 0.14 0.14 0.15 0.16 0.21 0.35 0.52 0.66 0.81 0.94 0.96 0.96 0.95 1.38 2.26
0.46 0.37 0.36 0.32 0.25 0.16 0.10 0.08 0.05 0.11 0.13 0.14 0.14 0.13 0.13 0.16 0.21 0.31 0.47 0.75 0.96 0.89 0.99 1.08 1.20 1.17 1.84
0.48 0.36 0.28 0.25 0.25 0.19 0.13 0.06 0.04 0.03 0.07 0.13 0.15 0.16 0.15 0.18 0.21 0.26 0.32 0.47 0.89 1.05 1.12 1.01 1.29 1.15 1.34
0.63 0.52 0.36 0.23 0.19 0.16 0.15 0.08 0.06 0.04 0.06 0.11 0.11 0.10 0.09 0.16 0.25 0.28 0.31 0.40 0.67 1.12 1.33 1.51 1.41 1.46 1.50
0.68 0.40 0.24 0.21 0.18 0.21 0.31 0.30 0.21 0.03 0.05 0.05 0.05 0.06 0.08 0.15 0.24 0.25 0.31 0.42 0.50 0.75 0.95 1.01 1.24 1.32 1.29
0.41 0.34 0.33 0.30 0.51 0.55 0.34 0.28 0.16 0.03 0.09 0.13 0.08 0.10 0.13 0.16 0.24 0.29 0.36 0.45 0.53 0.63 0.76 0.81 0.95 1.08 0.97
0.37 0.42 0.51 0.45 0.34 0.37 0.26 0.20 0.10 0.05 0.11 0.29 0.11 0.11 0.08 0.16 0.30 0.24 0.30 0.42 0.55 0.62 0.71 0.82 0.93 1.01 0.85
0.48 0.44 0.35 0.26 0.20 0.41 0.46 0.42 0.26 0.05 0.06 0.22 0.16 0.13 0.11 0.17 0.33 0.39 0.42 0.45 0.44 0.40 0.41 0.55 0.78 0.86 0.82
0.26 0.21 0.18 0.16 0.17 0.25 0.54 0.99 0.49 0.39 0.07 0.48 0.30 0.24 0.58 0.20 0.34 0.44 0.42 0.44 0.40 0.39 0.37 0.44 0.63 0.54 0.57
0.17 0.15 0.15 0.14 0.12 0.12 0.26 0.90 1.15 0.71 0.12 1.01 1.02 0.29 0.67 0.36 0.38 0.47 0.44 0.51 0.59 0.70 0.79 0.65 0.66 0.69 0.75
0.21 0.19 0.14 0.10 0.06 0.06 0.11 0.22 0.46 0.83 0.34 0.60 1.42 0.57 0.93 0.70 0.48 0.48 0.49 0.64 0.93 1.16 1.26 0.79 0.74 0.72 0.79
0.19 0.15 0.14 0.14 0.08 0.07 0.12 0.17 0.22 0.28 0.35 0.43 0.86 0.82 1.05 0.96 0.62 0.44 0.63 0.73 0.85 1.00 1.08 1.14 0.99 0.71 0.62
0.30 0.20 0.17 0.15 0.15 0.21 0.39 0.30 0.42 0.30 0.34 0.44 0.58 0.80 0.85 0.56 0.70 0.63 0.58 0.92 0.91 0.93 0.90 1.07 1.09 0.71 0.35
0.52 0.51 0.40 0.34 0.31 0.34 0.52 0.64 0.72 0.53 0.46 0.41 0.33 0.32 0.44 0.50 0.62 0.49 0.54 0.71 1.02 1.05 0.87 1.05 0.99 0.83 0.49
0.41 0.41 0.48 0.48 0.50 0.47 0.61 0.78 0.75 0.56 0.56 0.46 0.34 0.31 0.31 0.31 0.48 0.73 0.69 0.77 1.00 0.90 0.80 0.86 0.94 1.00 0.65
0.69 0.70 0.67 0.54 0.52 0.56 0.63 0.66 0.61 0.52 0.40 0.28 0.35 0.61 0.71 0.34 0.27 0.61 1.17 0.99 0.75 0.66 0.60 0.62 0.82 0.89 0.58

GFSFLT2_prec_precacc_135.txt.gz
Total_Precipitation_Accumulation
0.85 0.77 0.64 0.53 0.50 0.43 0.39 0.32 0.34 0.42 0.36 0.30 0.24 0.24 0.27 0.31 0.36 0.47 0.53 0.67 0.86 0.83 0.83 1.03 1.30 1.80 1.95
0.70 0.62 0.52 0.45 0.45 0.36 0.26 0.24 0.18 0.22 0.20 0.16 0.15 0.14 0.15 0.16 0.21 0.35 0.52 0.66 0.81 0.94 0.96 0.96 0.95 1.38 2.26
0.59 0.43 0.39 0.34 0.28 0.20 0.15 0.13 0.11 0.17 0.18 0.16 0.14 0.13 0.13 0.16 0.21 0.31 0.47 0.75 0.96 0.89 0.99 1.09 1.20 1.17 1.84
0.64 0.48 0.35 0.31 0.32 0.27 0.21 0.16 0.11 0.08 0.11 0.14 0.15 0.16 0.15 0.18 0.21 0.26 0.32 0.47 0.89 1.05 1.12 1.01 1.29 1.15 1.35
0.79 0.68 0.48 0.32 0.27 0.24 0.26 0.23 0.18 0.10 0.09 0.12 0.11 0.10 0.09 0.16 0.25 0.28 0.31 0.40 0.67 1.12 1.33 1.53 1.41 1.46 1.51
0.84 0.52 0.31 0.28 0.29 0.38 0.50 0.47 0.34 0.09 0.12 0.10 0.06 0.06 0.08 0.15 0.24 0.25 0.31 0.42 0.50 0.75 0.96 1.03 1.24 1.32 1.30
0.53 0.45 0.46 0.45 0.73 0.81 0.61 0.52 0.36 0.16 0.21 0.18 0.09 0.10 0.13 0.16 0.24 0.29 0.36 0.45 0.53 0.63 0.78 0.83 0.95 1.08 0.98
0.44 0.51 0.63 0.65 0.60 0.64 0.55 0.50 0.33 0.22 0.25 0.37 0.13 0.11 0.08 0.16 0.30 0.24 0.30 0.42 0.55 0.63 0.74 0.85 0.93 1.02 0.86
0.51 0.48 0.42 0.38 0.36 0.59 0.67 0.64 0.48 0.21 0.20 0.30 0.17 0.13 0.11 0.17 0.33 0.39 0.42 0.45 0.44 0.41 0.43 0.59 0.79 0.87 0.82
0.26 0.23 0.22 0.24 0.29 0.38 0.69 1.15 0.62 0.48 0.15 0.53 0.31 0.25 0.59 0.20 0.34 0.44 0.42 0.44 0.40 0.39 0.39 0.48 0.66 0.55 0.57
0.18 0.16 0.16 0.17 0.19 0.21 0.36 1.03 1.27 0.78 0.15 1.04 1.03 0.29 0.67 0.36 0.38 0.47 0.44 0.51 0.59 0.70 0.80 0.67 0.74 0.73 0.75
0.22 0.20 0.15 0.12 0.11 0.13 0.18 0.30 0.55 0.91 0.39 0.62 1.43 0.58 0.93 0.70 0.48 0.48 0.49 0.64 0.93 1.16 1.26 0.81 0.78 0.83 0.83
0.20 0.16 0.16 0.16 0.13 0.11 0.15 0.21 0.27 0.34 0.40 0.46 0.88 0.83 1.05 0.96 0.62 0.44 0.63 0.73 0.85 1.00 1.08 1.14 0.99 0.74 0.67
0.31 0.23 0.25 0.27 0.27 0.32 0.48 0.37 0.47 0.34 0.38 0.47 0.60 0.80 0.85 0.56 0.70 0.63 0.58 0.92 0.91 0.93 0.90 1.07 1.09 0.71 0.36
0.56 0.59 0.54 0.50 0.48 0.54 0.75 0.87 0.91 0.65 0.54 0.45 0.35 0.33 0.44 0.50 0.62 0.49 0.54 0.71 1.02 1.05 0.87 1.05 0.99 0.83 0.49
0.48 0.51 0.63 0.64 0.69 0.69 0.88 1.05 0.97 0.74 0.68 0.51 0.36 0.32 0.31 0.31 0.48 0.73 0.69 0.77 1.00 0.90 0.80 0.86 0.94 1.00 0.65
0.78 0.80 0.80 0.70 0.70 0.76 0.83 0.85 0.78 0.64 0.50 0.32 0.37 0.61 0.71 0.34 0.27 0.61 1.17 0.99 0.75 0.66 0.60 0.62 0.82 0.89 0.58

GFSFLT2_prec_precacc_138.txt.gz
Total_Precipitation_Accumulation
0.87 0.79 0.67 0.58 0.55 0.49 0.44 0.34 0.35 0.44 0.38 0.31 0.25 0.25 0.27 0.31 0.36 0.47 0.53 0.67 0.86 0.83 0.83 1.03 1.30 1.80 1.95
0.76 0.64 0.55 0.48 0.48 0.40 0.28 0.25 0.19 0.24 0.23 0.18 0.16 0.15 0.16 0.16 0.21 0.35 0.52 0.66 0.81 0.94 0.96 0.96 0.95 1.38 2.27
0.65 0.44 0.39 0.34 0.29 0.21 0.16 0.16 0.15 0.23 0.23 0.22 0.19 0.16 0.15 0.17 0.22 0.31 0.47 0.75 0.96 0.89 0.99 1.09 1.20 1.17 1.85
0.69 0.50 0.36 0.31 0.33 0.29 0.26 0.21 0.16 0.11 0.14 0.20 0.23 0.22 0.20 0.21 0.22 0.26 0.32 0.47 0.89 1.05 1.12 1.01 1.29 1.15 1.35
0.82 0.72 0.50 0.34 0.30 0.28 0.33 0.30 0.25 0.16 0.14 0.18 0.18 0.17 0.15 0.21 0.27 0.28 0.31 0.40 0.67 1.12 1.33 1.53 1.41 1.46 1.51
0.93 0.59 0.35 0.33 0.34 0.43 0.57 0.53 0.40 0.14 0.19 0.22 0.21 0.20 0.19 0.22 0.28 0.26 0.31 0.42 0.50 0.75 0.96 1.04 1.24 1.32 1.30
0.56 0.47 0.47 0.45 0.73 0.82 0.61 0.54 0.42 0.24 0.32 0.31 0.22 0.22 0.21 0.22 0.28 0.29 0.36 0.45 0.53 0.63 0.78 0.84 0.96 1.08 0.98
0.44 0.51 0.63 0.65 0.60 0.64 0.55 0.52 0.37 0.28 0.33 0.46 0.23 0.21 0.14 0.18 0.31 0.24 0.30 0.42 0.55 0.63 0.74 0.87 0.94 1.02 0.86
0.51 0.48 0.42 0.38 0.36 0.59 0.67 0.65 0.49 0.24 0.25 0.36 0.25 0.19 0.15 0.19 0.34 0.40 0.42 0.45 0.44 0.41 0.44 0.64 0.81 0.87 0.82
0.26 0.23 0.22 0.24 0.29 0.38 0.69 1.15 0.62 0.49 0.16 0.55 0.34 0.28 0.62 0.22 0.36 0.45 0.42 0.44 0.40 0.39 0.41 0.54 0.70 0.55 0.57
0.18 0.16 0.16 0.17 0.19 0.21 0.36 1.03 1.27 0.79 0.16 1.05 1.04 0.32 0.71 0.39 0.41 0.49 0.44 0.51 0.59 0.70 0.82 0.72 0.78 0.74 0.75
0.22 0.21 0.16 0.14 0.13 0.15 0.21 0.32 0.57 0.93 0.43 0.66 1.46 0.62 0.98 0.74 0.51 0.50 0.49 0.64 0.93 1.16 1.26 0.83 0.81 0.89 0.85
0.20 0.17 0.16 0.19 0.21 0.23 0.27 0.30 0.34 0.39 0.47 0.54 0.98 0.94 1.14 1.02 0.66 0.46 0.64 0.73 0.85 1.00 1.08 1.15 1.00 0.78 0.73
0.32 0.24 0.26 0.31 0.36 0.44 0.63 0.51 0.63 0.48 0.50 0.60 0.77 0.97 0.97 0.63 0.75 0.65 0.58 0.92 0.91 0.93 0.90 1.08 1.10 0.74 0.45
0.56 0.60 0.55 0.54 0.57 0.64 0.90 1.04 1.08 0.77 0.68 0.62 0.53 0.52 0.60 0.60 0.67 0.52 0.55 0.71 1.02 1.05 0.87 1.05 1.00 0.85 0.51
0.49 0.52 0.64 0.65 0.72 0.75 0.98 1.17 1.13 0.91 0.88 0.74 0.58 0.53 0.47 0.41 0.53 0.75 0.70 0.77 1.00 0.90 0.80 0.86 0.94 1.01 0.66
0.78 0.80 0.81 0.72 0.75 0.82 0.91 0.96 0.90 0.75 0.62 0.48 0.54 0.78 0.85 0.45 0.34 0.63 1.18 0.99 0.75 0.66 0.60 0.62 0.82 0.89 0.58

GFSFLT2_prec_precacc_141.txt.gz
Total_Precipitation_Accumulation
0.89 0.84 0.74 0.61 0.57 0.50 0.46 0.35 0.36 0.44 0.38 0.31 0.25 0.25 0.27 0.31 0.37 0.47 0.53 0.67 0.86 0.83 0.83 1.03 1.30 1.80 1.96
0.80 0.70 0.62 0.53 0.51 0.42 0.29 0.25 0.19 0.24 0.23 0.19 0.17 0.16 0.17 0.18 0.22 0.36 0.53 0.66 0.81 0.94 0.96 0.96 0.95 1.38 2.27
0.71 0.47 0.41 0.36 0.32 0.23 0.16 0.16 0.15 0.24 0.24 0.23 0.20 0.18 0.16 0.18 0.24 0.32 0.48 0.75 0.96 0.89 0.99 1.09 1.20 1.17 1.85
0.73 0.52 0.37 0.33 0.34 0.30 0.26 0.21 0.16 0.12 0.15 0.21 0.25 0.25 0.23 0.24 0.25 0.28 0.32 0.47 0.89 1.05 1.12 1.01 1.29 1.15 1.35
0.83 0.72 0.51 0.34 0.30 0.29 0.34 0.30 0.26 0.16 0.15 0.18 0.19 0.20 0.20 0.29 0.33 0.32 0.33 0.41 0.67 1.12 1.33 1.53 1.41 1.46 1.51
1.01 0.66 0.42 0.37 0.36 0.45 0.58 0.54 0.40 0.14 0.19 0.22 0.22 0.21 0.20 0.26 0.37 0.32 0.34 0.42 0.50 0.75 0.96 1.04 1.24 1.32 1.30
0.57 0.47 0.47 0.45 0.73 0.82 0.61 0.54 0.42 0.24 0.32 0.31 0.22 0.23 0.22 0.26 0.35 0.33 0.38 0.46 0.53 0.63 0.78 0.84 0.96 1.08 0.98
0.44 0.51 0.63 0.65 0.60 0.64 0.55 0.52 0.37 0.28 0.33 0.46 0.23 0.21 0.14 0.19 0.36 0.27 0.31 0.43 0.55 0.63 0.74 0.87 0.94 1.02 0.87
0.51 0.48 0.42 0.38 0.36 0.59 0.67 0.65 0.49 0.24 0.25 0.36 0.25 0.20 0.16 0.21 0.38 0.46 0.44 0.46 0.45 0.42 0.45 0.65 0.83 0.88 0.84
0.26 0.23 0.22 0.24 0.30 0.39 0.69 1.15 0.62 0.49 0.16 0.55 0.34 0.29 0.63 0.23 0.37 0.47 0.47 0.50 0.47 0.45 0.44 0.56 0.79 0.58 0.58
0.18 0.16 0.16 0.17 0.19 0.21 0.36 1.04 1.29 0.80 0.17 1.06 1.04 0.32 0.72 0.39 0.43 0.53 0.51 0.61 0.69 0.78 0.85 0.78 0.96 0.84 0.77
0.22 0.21 0.16 0.14 0.13 0.16 0.23 0.37 0.62 0.98 0.47 0.72 1.49 0.63 1.00 0.77 0.57 0.59 0.60 0.73 1.00 1.20 1.28 0.93 1.01 1.08 0.90
0.21 0.17 0.16 0.19 0.21 0.23 0.28 0.33 0.39 0.47 0.55 0.62 1.04 1.00 1.21 1.09 0.75 0.57 0.77 0.82 0.91 1.00 1.09 1.23 1.13 0.90 0.83
0.32 0.24 0.26 0.31 0.36 0.44 0.64 0.53 0.65 0.52 0.58 0.69 0.86 1.06 1.08 0.76 0.91 0.84 0.75 1.03 0.95 0.94 0.91 1.12 1.25 0.90 0.58
0.56 0.60 0.55 0.55 0.57 0.64 0.91 1.06 1.10 0.79 0.69 0.65 0.58 0.58 0.69 0.74 0.85 0.69 0.72 0.81 1.07 1.07 0.88 1.08 1.10 0.99 0.65
0.49 0.52 0.64 0.66 0.73 0.75 0.98 1.19 1.14 0.92 0.90 0.78 0.65 0.62 0.57 0.52 0.65 0.89 0.86 0.91 1.08 0.92 0.81 0.86 0.96 1.08 0.74
0.78 0.81 0.81 0.72 0.76 0.82 0.92 0.97 0.93 0.78 0.64 0.51 0.61 0.83 0.92 0.51 0.43 0.77 1.31 1.11 0.83 0.69 0.61 0.62 0.82 0.90 0.63

GFSFLT2_prec_precacc_144.txt.gz
Total_Precipitation_Accumulation
0.91 0.85 0.76 0.62 0.58 0.52 0.47 0.36 0.36 0.45 0.38 0.32 0.25 0.25 0.27 0.31 0.37 0.47 0.53 0.67 0.86 0.83 0.83 1.03 1.30 1.80 1.96
0.81 0.70 0.62 0.54 0.52 0.43 0.29 0.25 0.19 0.25 0.24 0.20 0.18 0.16 0.17 0.18 0.22 0.36 0.54 0.66 0.81 0.94 0.96 0.96 0.95 1.38 2.27
0.74 0.49 0.43 0.37 0.32 0.24 0.16 0.16 0.15 0.25 0.26 0.25 0.22 0.18 0.17 0.19 0.25 0.34 0.49 0.76 0.96 0.90 1.00 1.09 1.20 1.17 1.85
0.77 0.54 0.39 0.33 0.35 0.31 0.27 0.22 0.17 0.13 0.18 0.24 0.26 0.27 0.26 0.26 0.28 0.30 0.34 0.48 0.91 1.05 1.13 1.01 1.29 1.15 1.35
0.84 0.73 0.51 0.35 0.31 0.30 0.36 0.33 0.28 0.17 0.15 0.18 0.19 0.20 0.21 0.31 0.35 0.34 0.35 0.43 0.68 1.12 1.33 1.53 1.41 1.46 1.51
1.05 0.70 0.46 0.41 0.39 0.46 0.59 0.54 0.40 0.14 0.19 0.22 0.22 0.21 0.20 0.26 0.41 0.35 0.36 0.44 0.50 0.76 0.96 1.04 1.24 1.32 1.30
0.58 0.48 0.47 0.46 0.73 0.82 0.61 0.54 0.42 0.24 0.32 0.31 0.22 0.23 0.22 0.27 0.38 0.34 0.39 0.46 0.54 0.63 0.78 0.84 0.96 1.08 0.98
0.44 0.51 0.63 0.65 0.60 0.64 0.55 0.52 0.37 0.28 0.33 0.46 0.23 0.21 0.14 0.19 0.37 0.27 0.32 0.44 0.56 0.63 0.74 0.87 0.94 1.02 0.88
0.51 0.48 0.43 0.39 0.37 0.59 0.67 0.65 0.49 0.24 0.25 0.36 0.25 0.20 0.16 0.21 0.38 0.47 0.45 0.47 0.47 0.43 0.46 0.66 0.85 0.94 0.94
0.26 0.23 0.22 0.24 0.30 0.39 0.69 1.16 0.63 0.50 0.16 0.55 0.34 0.29 0.63 0.23 0.37 0.47 0.47 0.52 0.48 0.47 0.47 0.59 0.86 0.74 0.75
0.18 0.16 0.16 0.17 0.19 0.22 0.37 1.05 1.30 0.81 0.20 1.09 1.05 0.32 0.72 0.40 0.43 0.54 0.51 0.62 0.71 0.81 0.89 0.82 1.08 1.08 1.00
0.22 0.21 0.16 0.14 0.13 0.16 0.23 0.37 0.63 0.99 0.48 0.74 1.50 0.64 1.01 0.78 0.57 0.60 0.61 0.74 1.02 1.23 1.32 0.97 1.13 1.30 1.17
0.21 0.17 0.16 0.19 0.21 0.23 0.28 0.33 0.39 0.47 0.56 0.63 1.05 1.02 1.23 1.11 0.76 0.58 0.80 0.85 0.94 1.03 1.11 1.27 1.24 1.07 1.01
0.32 0.24 0.26 0.31 0.36 0.44 0.64 0.53 0.65 0.52 0.58 0.71 0.89 1.08 1.11 0.79 0.93 0.86 0.77 1.06 0.98 0.95 0.92 1.16 1.36 1.06 0.74
0.56 0.60 0.55 0.55 0.57 0.64 0.91 1.06 1.11 0.79 0.70 0.66 0.60 0.60 0.71 0.76 0.87 0.70 0.75 0.85 1.10 1.09 0.92 1.15 1.22 1.13 0.82
0.49 0.52 0.64 0.66 0.73 0.75 0.99 1.19 1.14 0.92 0.90 0.78 0.68 0.68 0.63 0.57 0.68 0.90 0.89 0.93 1.14 0.95 0.81 0.90 1.04 1.23 0.92
0.78 0.81 0.81 0.72 0.77 0.82 0.92 0.98 0.93 0.78 0.64 0.51 0.62 0.87 0.96 0.54 0.44 0.78 1.32 1.12 0.88 0.77 0.63 0.63 0.85 1.00 0.82